Darstellungsparameter: Aktuell verwendete Einstellungen:
Skalierung der Graphiken ... ?
xyx+y,   Skalierungsfaktor:      Skalierung: Modus: x, Faktor: 1
Darstellungszeitraum ... ?
Vom - - bis: - -   Zeitraum: 01.04.2017 - 31.03.2020
Min/Max/Avg-Anzeige ... ?
Zeige MMA aktuell
Zeige MMA Monat
Zeige MMA alles
Zeige --A aktuell
Zeige --A Monat
Zeige --A alles
Keine MMA-Anzeige
MMA:
Keine MMA-Graphiken
MMA-Basis: 01.04.2017 - 31.03.2020
Quicknavigation für Darstellung... ?
Tage:      1T, 2T, 3T, 5T -1T -2T -3T -5T +1T +2T +3T +5T
Wochen: 1W, 2W, 3W -1W -2W -3W +1W +2W +3W
Monate: 1M, 3M, 6M -1M -3M -6M +1M +3M +6M
Jahre:    1J, 3J, 5J, 10J -1J -3J -5J -10J +1J +3J +5J +10J
Nutze für die Darstellung ... ?
Originaldaten oder ...
Mittelwerte Minima Maxima auf...
Stundenbasis Tagesbasis Wochenbasis
Monatsbasis Jahresbasis      Datenbasis: Mittelwerte auf Tagesbasis
Darstellen als:
Statistik (Auto) Statistik J:M      Darstellung:
Zur Graphik,    zurück zur Übersicht aller Sensoren.
 
Tabellarische Datenbersicht: ?
 
Sensor: Nr:Datum:Temp:Feuchte:
Aussen-T/F 1 01-04-2017 00:00:00 13.83417 C 20.9000 %
2 02-04-2017 00:00:00 11.94167 C 24.9167 %
3 03-04-2017 00:00:00 10.62 C 26.7750 %
4 04-04-2017 00:00:00 9.20333 C 28.3417 %
5 05-04-2017 00:00:00 8.82333 C 22.4667 %
6 06-04-2017 00:00:00 9.21083 C 20.3667 %
7 07-04-2017 00:00:00 10.40583 C 23.0667 %
8 08-04-2017 00:00:00 13.42167 C 20.0917 %
9 09-04-2017 00:00:00 12.59 C 28.2250 %
10 10-04-2017 00:00:00 10.98833 C 23.4333 %
11 11-04-2017 00:00:00 10.6675 C 20.0000 %
12 12-04-2017 00:00:00 11.54667 C 20.0083 %
13 13-04-2017 00:00:00 12.27417 C 20.7667 %
14 14-04-2017 00:00:00 10.30417 C 22.3083 %
15 15-04-2017 00:00:00 8.6675 C 21.4500 %
16 16-04-2017 00:00:00 7.34417 C 23.7417 %
17 17-04-2017 00:00:00 6.805 C 28.0667 %
18 18-04-2017 00:00:00 5.69667 C 20.6333 %
19 19-04-2017 00:00:00 4.65667 C 28.3500 %
20 20-04-2017 00:00:00 6.6825 C 23.4667 %
21 21-04-2017 00:00:00 8.16917 C 22.1500 %
22 22-04-2017 00:00:00 9.88 C 20.0000 %
23 23-04-2017 00:00:00 7.65 C 20.5333 %
24 24-04-2017 00:00:00 6.5875 C 27.3250 %
25 25-04-2017 00:00:00 7.13193 C 20.0000 %
Sensor: Nr:Datum:Temp:Feuchte:
Aussen-T/F 26 26-04-2017 00:00:00 7.62583 C 20.1500 %
27 27-04-2017 00:00:00 7.74917 C 23.9083 %
28 28-04-2017 00:00:00 6.26083 C 27.3167 %
29 29-04-2017 00:00:00 9.68667 C 30.5750 %
30 30-04-2017 00:00:00 11.3975 C 20.0000 %
31 01-05-2017 00:00:00 9.75083 C 27.4250 %
32 02-05-2017 00:00:00 8.5825 C 45.3500 %
33 03-05-2017 00:00:00 10.7175 C 39.5000 %
34 04-05-2017 00:00:00 11.94833 C 30.7750 %
35 05-05-2017 00:00:00 12.685 C 23.2667 %
36 06-05-2017 00:00:00 13.30333 C 33.1667 %
37 07-05-2017 00:00:00 12.8375 C 37.3083 %
38 08-05-2017 00:00:00 9.69083 C 26.5500 %
39 09-05-2017 00:00:00 11.87667 C 24.9000 %
40 10-05-2017 00:00:00 11.33833 C 26.9167 %
41 11-05-2017 00:00:00 14.63833 C 25.1750 %
42 12-05-2017 00:00:00 16.395 C 30.7500 %
43 13-05-2017 00:00:00 18.05917 C 28.5167 %
44 14-05-2017 00:00:00 16.575 C 24.9333 %
45 15-05-2017 00:00:00 16.65 C 33.9583 %
46 16-05-2017 00:00:00 20.58167 C 20.0000 %
47 17-05-2017 00:00:00 21.33 C 20.8417 %
48 18-05-2017 00:00:00 18.02917 C 26.7583 %
49 19-05-2017 00:00:00 13.17667 C 46.5833 %
50 20-05-2017 00:00:00 12.655 C 37.4083 %
Sensor: Nr:Datum:Temp:Feuchte:
Aussen-T/F 51 21-05-2017 00:00:00 14.64917 C 29.2750 %
52 22-05-2017 00:00:00 17.3675 C 27.8667 %
53 23-05-2017 00:00:00 19.65167 C 23.7417 %
54 24-05-2017 00:00:00 17.405 C 20.4000 %
55 25-05-2017 00:00:00 20.29 C 21.8917 %
56 26-05-2017 00:00:00 19.73833 C 24.5250 %
57 27-05-2017 00:00:00 22.6075 C 24.8667 %
58 28-05-2017 00:00:00 21.81583 C 24.8250 %
59 29-05-2017 00:00:00 24.57833 C 34.4500 %
60 30-05-2017 00:00:00 22.94833 C 21.0500 %
61 31-05-2017 00:00:00 20.15917 C 21.0333 %
62 01-06-2017 00:00:00 20.24833 C 23.6500 %
63 02-06-2017 00:00:00 19.48083 C 25.5083 %
64 03-06-2017 00:00:00 19.46417 C 36.0000 %
65 04-06-2017 00:00:00 16.96583 C 37.9333 %
66 05-06-2017 00:00:00 17.975 C 34.7083 %
67 06-06-2017 00:00:00 16.04667 C 23.7250 %
68 07-06-2017 00:00:00 14.48333 C 20.5500 %
69 08-06-2017 00:00:00 19.25 C 21.2917 %
70 09-06-2017 00:00:00 18.0925 C 23.5250 %
71 10-06-2017 00:00:00 19.44 C 25.5417 %
72 11-06-2017 00:00:00 21.575 C 23.5750 %
73 12-06-2017 00:00:00 22.1675 C 20.1333 %
74 13-06-2017 00:00:00 19.81833 C 20.2667 %
75 14-06-2017 00:00:00 20.985 C 24.1917 %
Sensor: Nr:Datum:Temp:Feuchte:
Aussen-T/F 76 15-06-2017 00:00:00 22.28333 C 21.9500 %
77 16-06-2017 00:00:00 20.18667 C 20.0000 %
78 17-06-2017 00:00:00 18.07917 C 20.4667 %
79 18-06-2017 00:00:00 23.58667 C 21.1333 %
80 19-06-2017 00:00:00 24.0825 C 23.3000 %
81 20-06-2017 00:00:00 25.57083 C 21.0333 %
82 21-06-2017 00:00:00 27.36167 C 20.0000 %
83 22-06-2017 00:00:00 24.04083 C 25.6833 %
84 23-06-2017 00:00:00 23.645 C 21.6583 %
85 24-06-2017 00:00:00 21.56417 C 21.1667 %
86 25-06-2017 00:00:00 20.95 C 20.0000 %
87 26-06-2017 00:00:00 23.18333 C 20.0000 %
88 27-06-2017 00:00:00 19.20417 C 25.8000 %
89 28-06-2017 00:00:00 20.19167 C 37.8250 %
90 29-06-2017 00:00:00 18.5125 C 27.5083 %
91 30-06-2017 00:00:00 18.34833 C 22.5167 %
92 01-07-2017 00:00:00 16.22083 C 30.4250 %
93 02-07-2017 00:00:00 16.92 C 32.0250 %
94 03-07-2017 00:00:00 18.83333 C 27.3833 %
95 04-07-2017 00:00:00 21.9375 C 21.4833 %
96 05-07-2017 00:00:00 23.425 C 23.6833 %
97 06-07-2017 00:00:00 22.78417 C 24.7917 %
98 07-07-2017 00:00:00 24.54667 C 34.9667 %
99 08-07-2017 00:00:00 24.04167 C 22.1750 %
100 09-07-2017 00:00:00 23.87667 C 21.6750 %
Sensor: Nr:Datum:Temp:Feuchte:
Aussen-T/F 101 10-07-2017 00:00:00 19.995 C 36.4250 %
102 11-07-2017 00:00:00 19.97417 C 25.9167 %
103 12-07-2017 00:00:00 17.8025 C 27.7583 %
104 13-07-2017 00:00:00 17.10583 C 27.2083 %
105 14-07-2017 00:00:00 16.94333 C 24.9917 %
106 15-07-2017 00:00:00 17.56583 C 24.2833 %
107 16-07-2017 00:00:00 19.83833 C 21.7500 %
108 17-07-2017 00:00:00 22.11583 C 25.7917 %
109 18-07-2017 00:00:00 23.18917 C 26.1500 %
110 19-07-2017 00:00:00 24.29083 C 22.7083 %
111 20-07-2017 00:00:00 22.56083 C 28.0583 %
112 21-07-2017 00:00:00 21.25917 C 21.7417 %
113 22-07-2017 00:00:00 22.86083 C 31.7667 %
114 23-07-2017 00:00:00 19.16417 C 32.9917 %
115 24-07-2017 00:00:00 15.17 C 34.9083 %
116 25-07-2017 00:00:00 14.17917 C 53.8250 %
117 26-07-2017 00:00:00 17.7925 C 34.8833 %
118 27-07-2017 00:00:00 19.165 C 34.9917 %
119 28-07-2017 00:00:00 17.4625 C 30.7500 %
120 29-07-2017 00:00:00 20.93333 C 25.8500 %
121 30-07-2017 00:00:00 23.44917 C 24.9833 %
122 31-07-2017 00:00:00 21.3325 C 25.8250 %
123 01-08-2017 00:00:00 20.18333 C 47.5000 %
124 02-08-2017 00:00:00 22.01833 C 35.3417 %
125 03-08-2017 00:00:00 21.82833 C 28.1250 %
Sensor: Nr:Datum:Temp:Feuchte:
Aussen-T/F 126 04-08-2017 00:00:00 21.0775 C 24.1917 %
127 05-08-2017 00:00:00 19.94833 C 23.8417 %
128 06-08-2017 00:00:00 18.32583 C 25.1000 %
129 07-08-2017 00:00:00 17.93417 C 26.7083 %
130 08-08-2017 00:00:00 17.9375 C 27.5583 %
131 09-08-2017 00:00:00 18.1525 C 23.5583 %
132 10-08-2017 00:00:00 15.35 C 47.5833 %
133 11-08-2017 00:00:00 14.705 C 51.5167 %
134 12-08-2017 00:00:00 15.305 C 40.2750 %
135 13-08-2017 00:00:00 18.60917 C 28.7333 %
136 14-08-2017 00:00:00 18.56167 C 33.7917 %
137 15-08-2017 00:00:00 18.83833 C 38.5333 %
138 16-08-2017 00:00:00 19.97167 C 37.3917 %
139 17-08-2017 00:00:00 19.57167 C 33.3667 %
140 18-08-2017 00:00:00 18.17417 C 43.5167 %
141 19-08-2017 00:00:00 14.47417 C 43.3667 %
142 20-08-2017 00:00:00 14.925 C 30.8417 %
143 21-08-2017 00:00:00 16.3575 C 28.8917 %
144 22-08-2017 00:00:00 16.08833 C 31.8500 %
145 23-08-2017 00:00:00 17.92583 C 30.8917 %
146 24-08-2017 00:00:00 19.9075 C 26.1917 %
147 25-08-2017 00:00:00 18.30833 C 37.3750 %
148 26-08-2017 00:00:00 20.88833 C 44.3167 %
149 27-08-2017 00:00:00 19.63083 C 34.5250 %
150 28-08-2017 00:00:00 19.4775 C 30.1667 %
Sensor: Nr:Datum:Temp:Feuchte:
Aussen-T/F 151 29-08-2017 00:00:00 20.03667 C 34.9500 %
152 30-08-2017 00:00:00 20.91167 C 31.6750 %
153 31-08-2017 00:00:00 17.32857 C 27.5210 %
154 01-09-2017 00:00:00 14.1 C 34.5083 %
155 02-09-2017 00:00:00 14.51417 C 34.0667 %
156 03-09-2017 00:00:00 12.90417 C 31.6750 %
157 04-09-2017 00:00:00 13.94167 C 34.8750 %
158 05-09-2017 00:00:00 17.87 C 36.6833 %
159 06-09-2017 00:00:00 17.47083 C 25.8083 %
160 07-09-2017 00:00:00 15.90083 C 21.1083 %
161 08-09-2017 00:00:00 15.99583 C 20.6583 %
162 09-09-2017 00:00:00 14.54 C 39.9417 %
163 10-09-2017 00:00:00 13.27583 C 43.1833 %
164 11-09-2017 00:00:00 14.27083 C 26.4083 %
165 12-09-2017 00:00:00 14.32583 C 26.1417 %
166 13-09-2017 00:00:00 13.965 C 38.8333 %
167 14-09-2017 00:00:00 11.75417 C 39.2750 %
168 15-09-2017 00:00:00 12.5175 C 33.8750 %
169 16-09-2017 00:00:00 10.11333 C 40.9500 %
170 17-09-2017 00:00:00 9.67 C 51.4833 %
171 18-09-2017 00:00:00 10.46 C 46.2417 %
172 19-09-2017 00:00:00 11.76 C 32.8500 %
173 20-09-2017 00:00:00 11.29583 C 42.5167 %
174 21-09-2017 00:00:00 10.49 C 44.7417 %
175 22-09-2017 00:00:00 11.12417 C 43.8917 %
Sensor: Nr:Datum:Temp:Feuchte:
Aussen-T/F 176 23-09-2017 00:00:00 13.495 C 40.1917 %
177 24-09-2017 00:00:00 12.475 C 44.1417 %
178 25-09-2017 00:00:00 12.56583 C 44.0250 %
179 26-09-2017 00:00:00 13.27167 C 41.8333 %
180 27-09-2017 00:00:00 13.05083 C 43.9333 %
181 28-09-2017 00:00:00 14.64667 C 44.6000 %
182 29-09-2017 00:00:00 17.38667 C 38.5083 %
183 30-09-2017 00:00:00 14.205 C 48.5667 %
184 01-10-2017 00:00:00 10.23667 C 56.3000 %
185 02-10-2017 00:00:00 13.38833 C 43.6167 %
186 03-10-2017 00:00:00 12.20667 C 42.3667 %
187 04-10-2017 00:00:00 11.05583 C 31.0333 %
188 05-10-2017 00:00:00 12.92833 C 21.9667 %
189 06-10-2017 00:00:00 9.4 C 33.6250 %
190 07-10-2017 00:00:00 9.55083 C 31.6583 %
191 08-10-2017 00:00:00 11.81833 C 41.5417 %
192 09-10-2017 00:00:00 10.9925 C 47.1583 %
193 10-10-2017 00:00:00 12.88917 C 31.8167 %
194 11-10-2017 00:00:00 13.19167 C 31.2083 %
195 12-10-2017 00:00:00 13.13667 C 36.6500 %
196 13-10-2017 00:00:00 13.9275 C 38.7583 %
197 14-10-2017 00:00:00 12.47167 C 50.0167 %
198 15-10-2017 00:00:00 11.94833 C 54.6750 %
199 16-10-2017 00:00:00 12.63333 C 51.4833 %
200 17-10-2017 00:00:00 12.20667 C 52.4250 %
Sensor: Nr:Datum:Temp:Feuchte:
Aussen-T/F 201 18-10-2017 00:00:00 11.85333 C 50.4167 %
202 19-10-2017 00:00:00 11.0025 C 50.7750 %
203 20-10-2017 00:00:00 11.63697 C 37.7479 %
204 21-10-2017 00:00:00 11.28083 C 38.1917 %
205 22-10-2017 00:00:00 10.28417 C 24.4167 %
206 23-10-2017 00:00:00 10.42417 C 23.7667 %
207 24-10-2017 00:00:00 12.76333 C 33.7917 %
208 25-10-2017 00:00:00 15.1425 C 27.6500 %
209 26-10-2017 00:00:00 13.17917 C 29.2667 %
210 27-10-2017 00:00:00 10.80833 C 33.6167 %
211 28-10-2017 00:00:00 10.09833 C 24.5250 %
212 29-10-2017 00:00:00 10.1184 C 26.6160 %
213 30-10-2017 00:00:00 6.43917 C 30.2667 %
214 31-10-2017 00:00:00 7.06917 C 27.1250 %
215 01-11-2017 00:00:00 7.99917 C 24.8000 %
216 02-11-2017 00:00:00 7.76917 C 32.9583 %
217 03-11-2017 00:00:00 6.735 C 45.5833 %
218 04-11-2017 00:00:00 7.89167 C 53.2917 %
219 05-11-2017 00:00:00 8.26167 C 46.6500 %
220 06-11-2017 00:00:00 5.14 C 33.5917 %
221 07-11-2017 00:00:00 4.24333 C 45.0833 %
222 08-11-2017 00:00:00 6.0575 C 55.0333 %
223 09-11-2017 00:00:00 7.38917 C 46.1583 %
224 10-11-2017 00:00:00 6.65917 C 26.9667 %
225 11-11-2017 00:00:00 5.63583 C 40.7000 %
Sensor: Nr:Datum:Temp:Feuchte:
Aussen-T/F 226 12-11-2017 00:00:00 3.91583 C 58.4500 %
227 13-11-2017 00:00:00 4.73833 C 41.6917 %
228 14-11-2017 00:00:00 3.73417 C 47.8500 %
229 15-11-2017 00:00:00 6.5375 C 27.1083 %
230 16-11-2017 00:00:00 4.27833 C 39.8500 %
231 17-11-2017 00:00:00 5.2975 C 48.8250 %
232 18-11-2017 00:00:00 2.87083 C 39.8833 %
233 19-11-2017 00:00:00 4.78583 C 32.4167 %
234 20-11-2017 00:00:00 4.46917 C 31.8667 %
235 21-11-2017 00:00:00 8.65667 C 28.5833 %
236 22-11-2017 00:00:00 7.285 C 30.5250 %
237 23-11-2017 00:00:00 8.5175 C 46.0583 %
238 24-11-2017 00:00:00 9.68 C 41.3083 %
239 25-11-2017 00:00:00 4.5475 C 53.6583 %
240 26-11-2017 00:00:00 2.92583 C 28.8917 %
241 27-11-2017 00:00:00 4.8625 C 21.2917 %
242 28-11-2017 00:00:00 3.22667 C 51.1000 %
243 29-11-2017 00:00:00 2.265 C 55.6667 %
244 30-11-2017 00:00:00 1.60417 C 52.1417 %
245 01-12-2017 00:00:00 -0.2175 C 65.1167 %
246 02-12-2017 00:00:00 0.44833 C 41.3833 %
247 03-12-2017 00:00:00 -0.00667 C 31.2250 %
248 04-12-2017 00:00:00 2.29 C 46.3167 %
249 05-12-2017 00:00:00 3.6025 C 38.3333 %
250 06-12-2017 00:00:00 5.19833 C 24.6583 %
Sensor: Nr:Datum:Temp:Feuchte:
Aussen-T/F 251 07-12-2017 00:00:00 4.21333 C 22.9083 %
252 08-12-2017 00:00:00 2.61083 C 31.9250 %
253 09-12-2017 00:00:00 0.24417 C 20.0083 %
254 10-12-2017 00:00:00 1.39167 C 28.5667 %
255 11-12-2017 00:00:00 4.91083 C 48.9333 %
256 12-12-2017 00:00:00 2.8125 C 21.0417 %
257 13-12-2017 00:00:00 2.70083 C 32.0833 %
258 14-12-2017 00:00:00 3.58417 C 33.7083 %
259 15-12-2017 00:00:00 2.05167 C 59.1500 %
260 16-12-2017 00:00:00 2.14667 C 54.8167 %
261 17-12-2017 00:00:00 2.22583 C 28.7000 %
262 18-12-2017 00:00:00 0.71333 C 56.1333 %
263 19-12-2017 00:00:00 2.67 C 67.9667 %
264 20-12-2017 00:00:00 4.95083 C 67.4833 %
265 21-12-2017 00:00:00 6.82667 C 61.0083 %
266 22-12-2017 00:00:00 8.10417 C 67.4917 %
267 23-12-2017 00:00:00 8.1975 C 39.8417 %
268 24-12-2017 00:00:00 8.37583 C 20.1083 %
269 25-12-2017 00:00:00 6.34167 C 20.0583 %
270 26-12-2017 00:00:00 3.55917 C 38.0083 %
271 27-12-2017 00:00:00 4.2 C 40.9333 %
272 28-12-2017 00:00:00 2.28083 C 30.6667 %
273 29-12-2017 00:00:00 1.6 C 29.8333 %
274 30-12-2017 00:00:00 6.22583 C 44.3250 %
275 31-12-2017 00:00:00 12.09667 C 23.3583 %
Sensor: Nr:Datum:Temp:Feuchte:
Aussen-T/F 276 01-01-2018 00:00:00 7.035 C 28.9500 %
277 02-01-2018 00:00:00 5.395 C 28.4083 %
278 03-01-2018 00:00:00 7.40667 C 26.8250 %
279 04-01-2018 00:00:00 7.375 C 35.2167 %
280 05-01-2018 00:00:00 7.45583 C 34.5250 %
281 06-01-2018 00:00:00 5.4075 C 71.1333 %
282 07-01-2018 00:00:00 4.365 C 39.4167 %
283 08-01-2018 00:00:00 3.86417 C 21.1167 %
284 09-01-2018 00:00:00 4.01083 C 35.8167 %
285 10-01-2018 00:00:00 5.88833 C 39.9000 %
286 11-01-2018 00:00:00 6.29167 C 52.8750 %
287 12-01-2018 00:00:00 5.70083 C 50.0167 %
288 13-01-2018 00:00:00 4.70917 C 38.6750 %
289 14-01-2018 00:00:00 2.06917 C 25.5583 %
290 15-01-2018 00:00:00 2.675 C 35.7000 %
291 16-01-2018 00:00:00 5.00167 C 27.7500 %
292 17-01-2018 00:00:00 2.35 C 27.4500 %
293 18-01-2018 00:00:00 4.8775 C 25.4667 %
294 19-01-2018 00:00:00 2.92583 C 27.3750 %
295 20-01-2018 00:00:00 2.10833 C 38.1000 %
296 21-01-2018 00:00:00 1.73917 C 43.8167 %
297 22-01-2018 00:00:00 4.38583 C 45.1083 %
298 23-01-2018 00:00:00 6.65593 C 27.4831 %
299 24-01-2018 00:00:00 10.79316 C 24.5470 %
300 25-01-2018 00:00:00 9.13917 C 43.9750 %
Sensor: Nr:Datum:Temp:Feuchte:
Aussen-T/F 301 26-01-2018 00:00:00 5.89167 C 56.7333 %
302 27-01-2018 00:00:00 4.26583 C 45.6667 %
303 28-01-2018 00:00:00 6.63917 C 22.5333 %
304 29-01-2018 00:00:00 9.275 C 22.7417 %
305 30-01-2018 00:00:00 4.25333 C 35.1167 %
306 31-01-2018 00:00:00 6.62917 C 32.6500 %
307 01-02-2018 00:00:00 2.0675 C 36.1083 %
308 02-02-2018 00:00:00 2.36417 C 31.6667 %
309 03-02-2018 00:00:00 2.65042 C 30.2269 %
310 04-02-2018 00:00:00 0.38667 C 29.6333 %
311 05-02-2018 00:00:00 -0.98583 C 20.2500 %
312 06-02-2018 00:00:00 -1.55167 C 25.9583 %
313 07-02-2018 00:00:00 -0.79667 C 32.3833 %
314 08-02-2018 00:00:00 -3.34333 C 28.9667 %
315 09-02-2018 00:00:00 -2.8975 C 36.1833 %
316 10-02-2018 00:00:00 1.41833 C 24.0167 %
317 11-02-2018 00:00:00 2.22 C 26.3667 %
318 12-02-2018 00:00:00 1.25083 C 34.8917 %
319 13-02-2018 00:00:00 -1.44 C 29.8417 %
320 14-02-2018 00:00:00 -3.14333 C 28.8667 %
321 15-02-2018 00:00:00 0.80417 C 40.6583 %
322 16-02-2018 00:00:00 0.98667 C 60.1667 %
323 17-02-2018 00:00:00 -0.55 C 48.8833 %
324 18-02-2018 00:00:00 -2.16917 C 38.4250 %
325 19-02-2018 00:00:00 0.37083 C 35.6500 %
Sensor: Nr:Datum:Temp:Feuchte:
Aussen-T/F 326 20-02-2018 00:00:00 -0.54083 C 33.3417 %
327 21-02-2018 00:00:00 -0.04917 C 22.5333 %
328 22-02-2018 00:00:00 -1.265 C 21.2167 %
329 23-02-2018 00:00:00 -2.0175 C 20.0000 %
330 24-02-2018 00:00:00 -2.72667 C 20.0000 %
331 25-02-2018 00:00:00 -3.74417 C 20.0000 %
332 26-02-2018 00:00:00 -5.06167 C 20.0000 %
333 27-02-2018 00:00:00 -7.2225 C 20.3500 %
334 28-02-2018 00:00:00 -7.98333 C 20.0000 %
335 01-03-2018 00:00:00 -3.74917 C 20.0000 %
336 02-03-2018 00:00:00 -2.59083 C 20.0917 %
337 03-03-2018 00:00:00 -0.72083 C 28.3583 %
338 04-03-2018 00:00:00 3.2 C 37.8833 %
339 05-03-2018 00:00:00 5.22833 C 42.3583 %
340 06-03-2018 00:00:00 4.25 C 40.7750 %
341 07-03-2018 00:00:00 4.89167 C 43.0333 %
342 08-03-2018 00:00:00 5.66417 C 23.5833 %
343 09-03-2018 00:00:00 4.83667 C 41.9500 %
344 10-03-2018 00:00:00 9.51333 C 45.7833 %
345 11-03-2018 00:00:00 9.60833 C 40.1667 %
346 12-03-2018 00:00:00 9.04083 C 37.0250 %
347 13-03-2018 00:00:00 6.84083 C 24.1083 %
348 14-03-2018 00:00:00 6.32917 C 26.1667 %
349 15-03-2018 00:00:00 5.73833 C 33.0750 %
350 16-03-2018 00:00:00 7.00917 C 47.9667 %
Sensor: Nr:Datum:Temp:Feuchte:
Aussen-T/F 351 17-03-2018 00:00:00 -0.93917 C 20.2583 %
352 18-03-2018 00:00:00 -2.1675 C 20.0000 %
353 19-03-2018 00:00:00 -0.63417 C 20.0000 %
354 20-03-2018 00:00:00 -0.4175 C 20.0167 %
355 21-03-2018 00:00:00 0.5225 C 24.8500 %
356 22-03-2018 00:00:00 2.45417 C 30.2000 %
357 23-03-2018 00:00:00 5.83583 C 38.3250 %
358 24-03-2018 00:00:00 4.74917 C 35.3167 %
359 25-03-2018 00:00:00 4.60522 C 30.4870 %
360 26-03-2018 00:00:00 7.34167 C 20.0250 %
361 27-03-2018 00:00:00 5.52083 C 29.7083 %
362 28-03-2018 00:00:00 8.02667 C 36.4167 %
363 29-03-2018 00:00:00 6.93667 C 20.9833 %
364 30-03-2018 00:00:00 6.38833 C 34.0000 %
365 31-03-2018 00:00:00 7.84583 C 39.4917 %
366 01-04-2018 00:00:00 7.26083 C 20.4250 %
367 02-04-2018 00:00:00 8.7875 C 27.6500 %
368 03-04-2018 00:00:00 13.26583 C 20.0000 %
369 04-04-2018 00:00:00 10.6625 C 24.3500 %
370 05-04-2018 00:00:00 7.485 C 30.3417 %
371 06-04-2018 00:00:00 6.66833 C 35.5583 %
372 07-04-2018 00:00:00 12.16083 C 22.7583 %
373 08-04-2018 00:00:00 14.75333 C 22.3333 %
374 09-04-2018 00:00:00 13.84583 C 24.6917 %
375 10-04-2018 00:00:00 12.68 C 28.0833 %
Sensor: Nr:Datum:Temp:Feuchte:
Aussen-T/F 376 11-04-2018 00:00:00 11.99333 C 34.9833 %
377 12-04-2018 00:00:00 13.34833 C 37.0500 %
378 13-04-2018 00:00:00 9.9075 C 32.0833 %
379 14-04-2018 00:00:00 12.74 C 36.2167 %
380 15-04-2018 00:00:00 14.41667 C 27.2750 %
381 16-04-2018 00:00:00 13.76083 C 31.1917 %
382 17-04-2018 00:00:00 14.02167 C 29.2083 %
383 18-04-2018 00:00:00 15.74583 C 26.0333 %
384 19-04-2018 00:00:00 17.22083 C 26.6000 %
385 20-04-2018 00:00:00 17.00083 C 24.1667 %
386 21-04-2018 00:00:00 18.43667 C 23.5750 %
387 22-04-2018 00:00:00 18.55417 C 25.1083 %
388 23-04-2018 00:00:00 18.66417 C 20.2833 %
389 24-04-2018 00:00:00 14.27333 C 24.2167 %
390 25-04-2018 00:00:00 13.4125 C 21.6750 %
391 26-04-2018 00:00:00 11.21 C 20.0000 %
392 27-04-2018 00:00:00 12.55083 C 22.6167 %
393 28-04-2018 00:00:00 12.6075 C 23.1000 %
394 29-04-2018 00:00:00 14.48167 C 29.9583 %
395 30-04-2018 00:00:00 13.82167 C 24.6083 %
396 01-05-2018 00:00:00 9.82667 C 20.0500 %
397 02-05-2018 00:00:00 9.81083 C 27.0250 %
398 03-05-2018 00:00:00 12.9575 C 23.3250 %
399 04-05-2018 00:00:00 13.49833 C 21.9583 %
400 05-05-2018 00:00:00 15.83583 C 20.0667 %
Sensor: Nr:Datum:Temp:Feuchte:
Aussen-T/F 401 06-05-2018 00:00:00 17.25 C 20.1167 %
402 07-05-2018 00:00:00 17.88167 C 21.1000 %
403 08-05-2018 00:00:00 18.43583 C 22.6667 %
404 09-05-2018 00:00:00 17.19333 C 22.2583 %
405 10-05-2018 00:00:00 14.13917 C 25.9500 %
406 11-05-2018 00:00:00 14.92083 C 27.9167 %
407 12-05-2018 00:00:00 17.0825 C 28.2750 %
408 13-05-2018 00:00:00 14.3425 C 37.0500 %
409 14-05-2018 00:00:00 17.16333 C 35.6750 %
410 15-05-2018 00:00:00 16.0375 C 27.9417 %
411 16-05-2018 00:00:00 15.7475 C 27.4000 %
412 17-05-2018 00:00:00 14.55667 C 23.4833 %
413 18-05-2018 00:00:00 13.17083 C 21.1083 %
414 19-05-2018 00:00:00 13.845 C 23.5250 %
415 20-05-2018 00:00:00 14.06917 C 31.8333 %
416 21-05-2018 00:00:00 17.55333 C 27.4333 %
417 22-05-2018 00:00:00 17.09833 C 29.9833 %
418 23-05-2018 00:00:00 17.23083 C 36.1833 %
419 24-05-2018 00:00:00 17.22083 C 27.4917 %
420 25-05-2018 00:00:00 20.19417 C 26.8083 %
421 26-05-2018 00:00:00 21.1325 C 26.3667 %
422 27-05-2018 00:00:00 20.4375 C 27.6917 %
423 28-05-2018 00:00:00 21.70917 C 33.5833 %
424 29-05-2018 00:00:00 20.88333 C 27.1500 %
425 30-05-2018 00:00:00 21.6725 C 28.2333 %
Sensor: Nr:Datum:Temp:Feuchte:
Aussen-T/F 426 31-05-2018 00:00:00 23.08167 C 20.2750 %
427 01-06-2018 00:00:00 19.3725 C 29.3667 %
428 02-06-2018 00:00:00 19.64917 C 23.6750 %
429 03-06-2018 00:00:00 20.04167 C 24.8250 %
430 04-06-2018 00:00:00 21.5125 C 24.5417 %
431 05-06-2018 00:00:00 21.2475 C 22.2500 %
432 06-06-2018 00:00:00 21.6775 C 24.0000 %
433 07-06-2018 00:00:00 21.58667 C 22.6167 %
434 08-06-2018 00:00:00 21.40167 C 24.3000 %
435 09-06-2018 00:00:00 22.3959 C 23.5984 %
436 10-06-2018 00:00:00 21.64333 C 33.3000 %
437 11-06-2018 00:00:00 19.07083 C 41.7083 %
438 12-06-2018 00:00:00 16.44167 C 37.5250 %
439 13-06-2018 00:00:00 15.1 C 22.7000 %
440 14-06-2018 00:00:00 15.48083 C 30.2917 %
441 15-06-2018 00:00:00 17.9025 C 35.7250 %
442 16-06-2018 00:00:00 20.2775 C 26.1583 %
443 17-06-2018 00:00:00 18.42583 C 22.8083 %
444 18-06-2018 00:00:00 18.235 C 21.9750 %
445 19-06-2018 00:00:00 19.13333 C 25.5583 %
446 20-06-2018 00:00:00 23.4825 C 24.4667 %
447 21-06-2018 00:00:00 18.58 C 22.6500 %
448 22-06-2018 00:00:00 14.12167 C 20.0000 %
449 23-06-2018 00:00:00 14.19167 C 21.2750 %
450 24-06-2018 00:00:00 16.46667 C 22.7833 %
Sensor: Nr:Datum:Temp:Feuchte:
Aussen-T/F 451 25-06-2018 00:00:00 17.57167 C 21.5583 %
452 26-06-2018 00:00:00 18.34083 C 24.8583 %
453 27-06-2018 00:00:00 19.81083 C 24.3333 %
454 28-06-2018 00:00:00 21.28417 C 20.6000 %
455 29-06-2018 00:00:00 24.82417 C 20.0000 %
456 30-06-2018 00:00:00 22.8375 C 20.4583 %
457 01-07-2018 00:00:00 21.52333 C 20.0000 %
458 02-07-2018 00:00:00 21.06583 C 20.0000 %
459 03-07-2018 00:00:00 21.34917 C 20.0000 %
460 04-07-2018 00:00:00 19.00917 C 27.2667 %
461 05-07-2018 00:00:00 19.70667 C 33.6083 %
462 06-07-2018 00:00:00 20.57333 C 25.0417 %
463 07-07-2018 00:00:00 21.3521 C 23.5630 %
464 08-07-2018 00:00:00 20.38417 C 21.0583 %
465 09-07-2018 00:00:00 20.71083 C 21.4167 %
466 10-07-2018 00:00:00 17.5975 C 22.4000 %
467 11-07-2018 00:00:00 16.2875 C 33.6667 %
468 12-07-2018 00:00:00 19.71583 C 32.5000 %
469 13-07-2018 00:00:00 20.13 C 24.9667 %
470 14-07-2018 00:00:00 22.01333 C 24.7500 %
471 15-07-2018 00:00:00 22.10833 C 22.6333 %
472 16-07-2018 00:00:00 23.10667 C 21.7167 %
473 17-07-2018 00:00:00 21.59583 C 20.3583 %
474 18-07-2018 00:00:00 20.9475 C 22.7500 %
475 19-07-2018 00:00:00 21.47667 C 21.5833 %
Sensor: Nr:Datum:Temp:Feuchte:
Aussen-T/F 476 20-07-2018 00:00:00 21.81583 C 20.1917 %
477 21-07-2018 00:00:00 20.94083 C 22.6750 %
478 22-07-2018 00:00:00 22.115 C 25.1500 %
479 23-07-2018 00:00:00 22.98917 C 21.2167 %
480 24-07-2018 00:00:00 24.11417 C 22.5833 %
481 25-07-2018 00:00:00 25.90417 C 20.1583 %
482 26-07-2018 00:00:00 27.54333 C 20.0167 %
483 27-07-2018 00:00:00 26.46167 C 20.0000 %
484 28-07-2018 00:00:00 22.24 C 22.3250 %
485 29-07-2018 00:00:00 23.87667 C 23.3500 %
486 30-07-2018 00:00:00 24.435 C 20.3250 %
487 31-07-2018 00:00:00 25.8025 C 21.1500 %
488 01-08-2018 00:00:00 20.68583 C 32.5500 %
489 02-08-2018 00:00:00 24.12 C 31.7333 %
490 03-08-2018 00:00:00 26.79583 C 20.9083 %
491 04-08-2018 00:00:00 26.84 C 20.0667 %
492 05-08-2018 00:00:00 25.5025 C 20.1667 %
493 06-08-2018 00:00:00 24.4075 C 20.1500 %
494 07-08-2018 00:00:00 26.99333 C 20.0000 %
495 08-08-2018 00:00:00 25.83667 C 20.0000 %
496 09-08-2018 00:00:00 20.8725 C 26.6583 %
497 10-08-2018 00:00:00 18.73667 C 20.8917 %
498 11-08-2018 00:00:00 18.76667 C 20.0000 %
499 12-08-2018 00:00:00 18.38667 C 21.9833 %
500 13-08-2018 00:00:00 17.82083 C 28.9750 %
Sensor: Nr:Datum:Temp:Feuchte:
Aussen-T/F 501 14-08-2018 00:00:00 18.755 C 28.1167 %
502 15-08-2018 00:00:00 19.59583 C 29.0833 %
503 16-08-2018 00:00:00 20.84333 C 28.0000 %
504 17-08-2018 00:00:00 20.11583 C 22.3500 %
505 18-08-2018 00:00:00 19.2675 C 26.3417 %
506 19-08-2018 00:00:00 20.68667 C 23.5250 %
507 20-08-2018 00:00:00 21.20333 C 20.6833 %
508 21-08-2018 00:00:00 22.2425 C 24.3417 %
509 22-08-2018 00:00:00 23.51417 C 22.7667 %
510 23-08-2018 00:00:00 23.22 C 23.0167 %
511 24-08-2018 00:00:00 19.31833 C 20.6583 %
512 25-08-2018 00:00:00 14.65417 C 21.6083 %
513 26-08-2018 00:00:00 13.95083 C 28.0000 %
514 27-08-2018 00:00:00 18.20917 C 20.3667 %
515 28-08-2018 00:00:00 18.39833 C 20.7167 %
516 29-08-2018 00:00:00 17.005 C 30.8917 %
517 30-08-2018 00:00:00 17.4125 C 25.9167 %
518 31-08-2018 00:00:00 15.33167 C 23.6000 %
519 01-09-2018 00:00:00 14.445 C 26.6667 %
520 02-09-2018 00:00:00 14.24833 C 24.8000 %
521 03-09-2018 00:00:00 18.13417 C 22.9917 %
522 04-09-2018 00:00:00 20.0425 C 27.0167 %
523 05-09-2018 00:00:00 20.69 C 25.3083 %
524 06-09-2018 00:00:00 18.0925 C 32.7583 %
525 07-09-2018 00:00:00 15.6675 C 33.8500 %
Sensor: Nr:Datum:Temp:Feuchte:
Aussen-T/F 526 08-09-2018 00:00:00 13.5425 C 30.5333 %
527 09-09-2018 00:00:00 16.80833 C 23.2500 %
528 10-09-2018 00:00:00 17.5025 C 23.9000 %
529 11-09-2018 00:00:00 18.86667 C 26.0333 %
530 12-09-2018 00:00:00 19.03167 C 24.0083 %
531 13-09-2018 00:00:00 16.5775 C 25.7417 %
532 14-09-2018 00:00:00 17.1375 C 25.2000 %
533 15-09-2018 00:00:00 15.17 C 21.0833 %
534 16-09-2018 00:00:00 14.51 C 27.7833 %
535 17-09-2018 00:00:00 16.24583 C 25.3583 %
536 18-09-2018 00:00:00 18.72833 C 26.0000 %
537 19-09-2018 00:00:00 20.545 C 25.3250 %
538 20-09-2018 00:00:00 19.08833 C 26.8417 %
539 21-09-2018 00:00:00 15.91167 C 24.5750 %
540 22-09-2018 00:00:00 12.6825 C 25.6333 %
541 23-09-2018 00:00:00 12.18083 C 47.2250 %
542 24-09-2018 00:00:00 9.66 C 36.3583 %
543 25-09-2018 00:00:00 8.06417 C 42.7083 %
544 26-09-2018 00:00:00 8.5625 C 35.2583 %
545 27-09-2018 00:00:00 10.55833 C 35.5667 %
546 28-09-2018 00:00:00 9.67833 C 43.7167 %
547 29-09-2018 00:00:00 7.75083 C 41.1250 %
548 30-09-2018 00:00:00 7.2475 C 35.9250 %
549 01-10-2018 00:00:00 9.41583 C 29.7833 %
550 02-10-2018 00:00:00 8.87917 C 33.7167 %
Sensor: Nr:Datum:Temp:Feuchte:
Aussen-T/F 551 03-10-2018 00:00:00 11.93917 C 34.0750 %
552 04-10-2018 00:00:00 9.37167 C 38.3000 %
553 05-10-2018 00:00:00 10.05917 C 42.4917 %
554 06-10-2018 00:00:00 12.08583 C 44.5417 %
555 07-10-2018 00:00:00 12.625 C 37.2750 %
556 08-10-2018 00:00:00 9.9775 C 39.4833 %
557 09-10-2018 00:00:00 11.14583 C 44.1500 %
558 10-10-2018 00:00:00 12.71667 C 45.8500 %
559 11-10-2018 00:00:00 13.6775 C 40.8667 %
560 12-10-2018 00:00:00 15.05417 C 38.8667 %
561 13-10-2018 00:00:00 14.68833 C 38.8250 %
562 14-10-2018 00:00:00 13.92083 C 36.1000 %
563 15-10-2018 00:00:00 12.87417 C 37.7167 %
564 16-10-2018 00:00:00 12.0325 C 38.6083 %
565 17-10-2018 00:00:00 12.01333 C 41.5083 %
566 18-10-2018 00:00:00 13.73917 C 38.0333 %
567 19-10-2018 00:00:00 11.66417 C 37.7167 %
568 20-10-2018 00:00:00 10.57167 C 36.9583 %
569 21-10-2018 00:00:00 6.7725 C 44.7500 %
570 22-10-2018 00:00:00 7.16833 C 43.7083 %
571 23-10-2018 00:00:00 8.68 C 39.8083 %
572 24-10-2018 00:00:00 13.58167 C 33.8333 %
573 25-10-2018 00:00:00 12.74667 C 31.1083 %
574 26-10-2018 00:00:00 9.95417 C 28.9917 %
575 27-10-2018 00:00:00 5.7925 C 48.4000 %
Sensor: Nr:Datum:Temp:Feuchte:
Aussen-T/F 576 28-10-2018 00:00:00 5.2 C 33.7840 %
577 29-10-2018 00:00:00 5.97083 C 33.6667 %
578 30-10-2018 00:00:00 5.80583 C 46.3667 %
579 31-10-2018 00:00:00 6.87167 C 39.3333 %
580 01-11-2018 00:00:00 5.49083 C 58.1333 %
581 02-11-2018 00:00:00 8.22333 C 53.4750 %
582 03-11-2018 00:00:00 3.10583 C 60.6667 %
583 04-11-2018 00:00:00 6.64167 C 47.4000 %
584 05-11-2018 00:00:00 9.7725 C 45.3417 %
585 06-11-2018 00:00:00 7.78167 C 57.6917 %
586 07-11-2018 00:00:00 8.4 C 54.3917 %
587 08-11-2018 00:00:00 9.7 C 41.1583 %
588 09-11-2018 00:00:00 8.83167 C 49.0500 %
589 10-11-2018 00:00:00 11.32 C 42.0250 %
590 11-11-2018 00:00:00 11.46583 C 47.7500 %
591 12-11-2018 00:00:00 13.07917 C 44.0417 %
592 13-11-2018 00:00:00 9.75583 C 50.0167 %
593 14-11-2018 00:00:00 5.56917 C 61.4000 %
594 15-11-2018 00:00:00 6.72833 C 38.5000 %
595 16-11-2018 00:00:00 5.12667 C 41.4000 %
596 17-11-2018 00:00:00 1.785 C 48.8667 %
597 18-11-2018 00:00:00 0.80333 C 30.7417 %
598 19-11-2018 00:00:00 2.95833 C 26.3167 %
599 20-11-2018 00:00:00 2.95167 C 25.6167 %
600 21-11-2018 00:00:00 1.93 C 37.9750 %
Sensor: Nr:Datum:Temp:Feuchte:
Aussen-T/F 601 22-11-2018 00:00:00 2.22833 C 39.2750 %
602 23-11-2018 00:00:00 -0.8425 C 54.2583 %
603 24-11-2018 00:00:00 4.05833 C 58.0917 %
604 25-11-2018 00:00:00 5.29 C 56.7917 %
605 26-11-2018 00:00:00 6.09333 C 35.8583 %
606 27-11-2018 00:00:00 3.6075 C 30.9583 %
607 28-11-2018 00:00:00 2.97583 C 45.6917 %
608 29-11-2018 00:00:00 4.98333 C 47.6917 %
609 30-11-2018 00:00:00 6.67167 C 48.6583 %
610 01-12-2018 00:00:00 6.67417 C 47.9750 %
611 02-12-2018 00:00:00 10.59167 C 45.4750 %
612 03-12-2018 00:00:00 11.02333 C 51.1333 %
613 04-12-2018 00:00:00 5.62 C 45.3833 %
614 05-12-2018 00:00:00 3.15546 C 56.8487 %
615 06-12-2018 00:00:00 9.21333 C 47.7750 %
616 07-12-2018 00:00:00 10.71583 C 33.9000 %
617 08-12-2018 00:00:00 7.28083 C 37.2333 %
618 09-12-2018 00:00:00 7.285 C 37.6917 %
619 10-12-2018 00:00:00 3.9825 C 44.3833 %
620 11-12-2018 00:00:00 2.87417 C 51.3500 %
621 12-12-2018 00:00:00 2.0375 C 58.1583 %
622 13-12-2018 00:00:00 0.49 C 37.0417 %
623 14-12-2018 00:00:00 0.48 C 20.9833 %
624 15-12-2018 00:00:00 -0.09083 C 24.2083 %
625 16-12-2018 00:00:00 0.045 C 43.8833 %
Sensor: Nr:Datum:Temp:Feuchte:
Aussen-T/F 626 17-12-2018 00:00:00 3.4775 C 51.8333 %
627 18-12-2018 00:00:00 4.1675 C 41.5083 %
628 19-12-2018 00:00:00 5.75 C 37.3000 %
629 20-12-2018 00:00:00 6.87083 C 39.0583 %
630 21-12-2018 00:00:00 10.1725 C 34.4750 %
631 22-12-2018 00:00:00 9.26167 C 35.0083 %
632 23-12-2018 00:00:00 7.89333 C 46.8500 %
633 24-12-2018 00:00:00 4.10333 C 44.5000 %
634 25-12-2018 00:00:00 1.0625 C 49.8500 %
635 26-12-2018 00:00:00 -1.61083 C 52.7667 %
636 27-12-2018 00:00:00 -0.68583 C 57.2917 %
637 28-12-2018 00:00:00 -0.61667 C 51.7667 %
638 29-12-2018 00:00:00 2.0175 C 45.4833 %
639 30-12-2018 00:00:00 6.73917 C 37.6417 %
640 31-12-2018 00:00:00 6.84917 C 56.5417 %
641 01-01-2019 00:00:00 6.345 C 45.5833 %
642 02-01-2019 00:00:00 2.72417 C 34.2083 %
643 03-01-2019 00:00:00 1.28167 C 47.5833 %
644 04-01-2019 00:00:00 2.41333 C 45.7833 %
645 05-01-2019 00:00:00 5.14417 C 47.4583 %
646 06-01-2019 00:00:00 5.0725 C 44.3083 %
647 07-01-2019 00:00:00 4.8875 C 41.5500 %
648 08-01-2019 00:00:00 5.74917 C 36.7000 %
649 09-01-2019 00:00:00 3.05083 C 34.6917 %
650 10-01-2019 00:00:00 1.36 C 32.5417 %
Sensor: Nr:Datum:Temp:Feuchte:
Aussen-T/F 651 11-01-2019 00:00:00 2.05417 C 54.0417 %
652 12-01-2019 00:00:00 5.01833 C 46.3583 %
653 13-01-2019 00:00:00 6.9225 C 47.7417 %
654 14-01-2019 00:00:00 4.06833 C 43.5667 %
655 15-01-2019 00:00:00 4.06833 C 40.0333 %
656 16-01-2019 00:00:00 4.52583 C 35.3417 %
657 17-01-2019 00:00:00 4.27167 C 37.9583 %
658 18-01-2019 00:00:00 -0.2025 C 49.3250 %
659 19-01-2019 00:00:00 -3.87667 C 48.1333 %
660 20-01-2019 00:00:00 -6.33 C 47.2250 %
661 21-01-2019 00:00:00 -7.505 C 46.8917 %
662 22-01-2019 00:00:00 -5.97917 C 44.1750 %
663 23-01-2019 00:00:00 -2.435 C 39.5667 %
664 24-01-2019 00:00:00 -2.72417 C 26.7667 %
665 25-01-2019 00:00:00 -0.50917 C 39.3333 %
666 26-01-2019 00:00:00 3.62167 C 45.9417 %
667 27-01-2019 00:00:00 4.94833 C 43.1917 %
668 28-01-2019 00:00:00 2.2025 C 45.2417 %
669 29-01-2019 00:00:00 0.865 C 44.1667 %
670 30-01-2019 00:00:00 -0.46833 C 49.8250 %
671 31-01-2019 00:00:00 -1.03333 C 52.2750 %
672 01-02-2019 00:00:00 0.72167 C 56.8333 %
673 02-02-2019 00:00:00 1.59587 C 62.5950 %
674 03-02-2019 00:00:00 1.86583 C 40.0750 %
675 04-02-2019 00:00:00 0.99417 C 40.5833 %
Sensor: Nr:Datum:Temp:Feuchte:
Aussen-T/F 676 05-02-2019 00:00:00 3.66167 C 30.5917 %
677 06-02-2019 00:00:00 0.09417 C 46.8417 %
678 07-02-2019 00:00:00 4.26083 C 38.9917 %
679 08-02-2019 00:00:00 6.77417 C 31.6250 %
680 09-02-2019 00:00:00 8.02083 C 28.8667 %
681 10-02-2019 00:00:00 7.15083 C 39.6167 %
682 11-02-2019 00:00:00 4.03667 C 38.3917 %
683 12-02-2019 00:00:00 3.01917 C 38.2083 %
684 13-02-2019 00:00:00 0.96333 C 46.8167 %
685 14-02-2019 00:00:00 -0.46667 C 51.0250 %
686 15-02-2019 00:00:00 0.9925 C 45.0667 %
687 16-02-2019 00:00:00 1.9325 C 47.3750 %
688 17-02-2019 00:00:00 2.17333 C 49.1333 %
689 18-02-2019 00:00:00 2.31167 C 43.0500 %
690 19-02-2019 00:00:00 4.89 C 40.9750 %
691 20-02-2019 00:00:00 3.7725 C 45.5000 %
692 21-02-2019 00:00:00 5.655 C 46.3667 %
693 22-02-2019 00:00:00 9.27167 C 39.5167 %
694 23-02-2019 00:00:00 4.58167 C 33.2583 %
695 24-02-2019 00:00:00 2.29833 C 32.9417 %
696 25-02-2019 00:00:00 3.65667 C 31.8250 %
697 26-02-2019 00:00:00 4.75583 C 37.6333 %
698 27-02-2019 00:00:00 5.17417 C 38.9250 %
699 28-02-2019 00:00:00 8.185 C 29.8833 %
700 01-03-2019 00:00:00 7.515 C 43.8250 %
Sensor: Nr:Datum:Temp:Feuchte:
Aussen-T/F 701 02-03-2019 00:00:00 8.29333 C 34.1417 %
702 03-03-2019 00:00:00 10.72417 C 28.1417 %
703 04-03-2019 00:00:00 9.1575 C 27.8167 %
704 05-03-2019 00:00:00 6.32167 C 30.8917 %
705 06-03-2019 00:00:00 9.5125 C 32.3667 %
706 07-03-2019 00:00:00 9.61917 C 28.3833 %
707 08-03-2019 00:00:00 7.73167 C 28.8250 %
708 09-03-2019 00:00:00 10.01667 C 26.3333 %
709 10-03-2019 00:00:00 9.11083 C 30.1417 %
710 11-03-2019 00:00:00 4.19667 C 30.2417 %
711 12-03-2019 00:00:00 6.18083 C 27.8583 %
712 13-03-2019 00:00:00 5.6775 C 31.5250 %
713 14-03-2019 00:00:00 6.3325 C 38.0083 %
714 15-03-2019 00:00:00 9.61417 C 37.6917 %
715 16-03-2019 00:00:00 9.76833 C 35.9667 %
716 17-03-2019 00:00:00 8.19083 C 26.8333 %
717 18-03-2019 00:00:00 4.3225 C 36.6583 %
718 19-03-2019 00:00:00 3.115 C 40.3583 %
719 20-03-2019 00:00:00 4.81417 C 37.4250 %
720 21-03-2019 00:00:00 6.76333 C 35.7167 %
721 22-03-2019 00:00:00 8.43083 C 34.0750 %
722 23-03-2019 00:00:00 5.40167 C 40.0083 %
723 24-03-2019 00:00:00 5.90583 C 38.2167 %
724 25-03-2019 00:00:00 4.41583 C 37.7583 %
725 26-03-2019 00:00:00 6.33417 C 32.9583 %
Sensor: Nr:Datum:Temp:Feuchte:
Aussen-T/F 726 27-03-2019 00:00:00 6.36583 C 35.3083 %
727 28-03-2019 00:00:00 6.955 C 36.2417 %
728 29-03-2019 00:00:00 8.44167 C 38.7750 %
729 30-03-2019 00:00:00 10.07583 C 34.1833 %
730 31-03-2019 00:00:00 9.90957 C 33.8174 %
731 01-04-2019 00:00:00 8.9475 C 32.5750 %
732 02-04-2019 00:00:00 10.5425 C 29.3083 %
733 03-04-2019 00:00:00 7.865 C 38.6750 %
734 04-04-2019 00:00:00 5.56833 C 48.7000 %
735 05-04-2019 00:00:00 5.95417 C 48.0167 %
736 06-04-2019 00:00:00 9.88333 C 42.1917 %
737 07-04-2019 00:00:00 11.50833 C 36.8000 %
738 08-04-2019 00:00:00 12.34417 C 33.9167 %
739 09-04-2019 00:00:00 12.00333 C 40.7333 %
740 10-04-2019 00:00:00 10.585 C 23.8417 %
741 11-04-2019 00:00:00 6.52917 C 25.0583 %
742 12-04-2019 00:00:00 4.68167 C 20.0000 %
743 13-04-2019 00:00:00 3.585 C 24.4167 %
744 14-04-2019 00:00:00 5.23833 C 34.7917 %
745 15-04-2019 00:00:00 10.29167 C 25.8000 %
746 16-04-2019 00:00:00 10.91333 C 23.2000 %
747 17-04-2019 00:00:00 12.4 C 35.6083 %
748 18-04-2019 00:00:00 13.7675 C 28.5500 %
749 19-04-2019 00:00:00 14.94917 C 24.5083 %
750 20-04-2019 00:00:00 14.60167 C 27.5833 %
Sensor: Nr:Datum:Temp:Feuchte:
Aussen-T/F 751 21-04-2019 00:00:00 15.24333 C 24.6417 %
752 22-04-2019 00:00:00 14.7825 C 27.5667 %
753 23-04-2019 00:00:00 15.12667 C 20.1083 %
754 24-04-2019 00:00:00 15.10083 C 30.7083 %
755 25-04-2019 00:00:00 13.2425 C 38.0667 %
756 26-04-2019 00:00:00 11.8 C 32.0000 %
757 27-04-2019 00:00:00 9.01583 C 40.3667 %
758 28-04-2019 00:00:00 8.43333 C 30.9750 %
759 29-04-2019 00:00:00 8.62417 C 38.4083 %
760 30-04-2019 00:00:00 13.94583 C 26.0833 %
761 01-05-2019 00:00:00 13.03833 C 29.5000 %
762 02-05-2019 00:00:00 12.08333 C 31.3667 %
763 03-05-2019 00:00:00 11.20833 C 25.1500 %
764 04-05-2019 00:00:00 6.17583 C 33.4500 %
765 05-05-2019 00:00:00 6.66333 C 32.0417 %
766 06-05-2019 00:00:00 7.6075 C 30.6583 %
767 07-05-2019 00:00:00 9.645 C 28.6167 %
768 08-05-2019 00:00:00 9.105 C 38.9750 %
769 09-05-2019 00:00:00 11.085 C 36.9583 %
770 10-05-2019 00:00:00 12.44538 C 33.3866 %
771 11-05-2019 00:00:00 9.52833 C 47.9417 %
772 12-05-2019 00:00:00 9.4 C 31.3083 %
773 13-05-2019 00:00:00 9.985 C 30.9083 %
774 14-05-2019 00:00:00 9.66333 C 26.4333 %
775 15-05-2019 00:00:00 10.57083 C 24.3500 %
Sensor: Nr:Datum:Temp:Feuchte:
Aussen-T/F 776 16-05-2019 00:00:00 10.61167 C 23.0917 %
777 17-05-2019 00:00:00 11.4775 C 39.7250 %
778 18-05-2019 00:00:00 14.67167 C 39.3500 %
779 19-05-2019 00:00:00 15.91083 C 38.3750 %
780 20-05-2019 00:00:00 13.655 C 37.8667 %
781 21-05-2019 00:00:00 11.88167 C 45.6167 %
782 22-05-2019 00:00:00 13.2875 C 33.7833 %
783 23-05-2019 00:00:00 15.22667 C 33.1417 %
784 24-05-2019 00:00:00 17.24 C 28.7500 %
785 25-05-2019 00:00:00 15.89917 C 22.8167 %
786 26-05-2019 00:00:00 16.26667 C 29.2667 %
787 27-05-2019 00:00:00 14.66667 C 40.5417 %
788 28-05-2019 00:00:00 14.29917 C 38.6250 %
789 29-05-2019 00:00:00 15.28667 C 25.9000 %
790 30-05-2019 00:00:00 15.82833 C 28.8250 %
791 31-05-2019 00:00:00 19.45583 C 30.4167 %
792 01-06-2019 00:00:00 20.21917 C 30.3583 %
793 02-06-2019 00:00:00 22.16417 C 30.0500 %
794 03-06-2019 00:00:00 21.1475 C 27.1667 %
795 04-06-2019 00:00:00 21.80333 C 28.3333 %
796 05-06-2019 00:00:00 23.57917 C 22.7833 %
797 06-06-2019 00:00:00 16.14167 C 28.3667 %
798 07-06-2019 00:00:00 16.10083 C 29.5250 %
799 08-06-2019 00:00:00 16.40917 C 20.2667 %
800 09-06-2019 00:00:00 16.72333 C 27.7667 %
Sensor: Nr:Datum:Temp:Feuchte:
Aussen-T/F 801 10-06-2019 00:00:00 19.705 C 23.4750 %
802 11-06-2019 00:00:00 17.38 C 32.4667 %
803 12-06-2019 00:00:00 16.405 C 33.2917 %
804 13-06-2019 00:00:00 16.27917 C 34.4333 %
805 14-06-2019 00:00:00 18.17 C 35.6583 %
806 15-06-2019 00:00:00 19.72583 C 33.0250 %
807 16-06-2019 00:00:00 19.94417 C 24.9167 %
808 17-06-2019 00:00:00 19.5125 C 29.1250 %
809 18-06-2019 00:00:00 22.02333 C 27.1333 %
810 19-06-2019 00:00:00 22.62583 C 27.6917 %
811 20-06-2019 00:00:00 20 C 28.0167 %
812 21-06-2019 00:00:00 19.3425 C 27.3333 %
813 22-06-2019 00:00:00 19.82667 C 26.6167 %
814 23-06-2019 00:00:00 22.3125 C 27.3750 %
815 24-06-2019 00:00:00 24.96167 C 26.2167 %
816 25-06-2019 00:00:00 26.83333 C 24.5583 %
817 26-06-2019 00:00:00 27.635 C 23.0833 %
818 27-06-2019 00:00:00 25.18917 C 20.6083 %
819 28-06-2019 00:00:00 22.44833 C 23.4333 %
820 29-06-2019 00:00:00 24.38417 C 22.1750 %
821 30-06-2019 00:00:00 26.0575 C 22.2333 %
822 01-07-2019 00:00:00 23.3825 C 20.0000 %
823 02-07-2019 00:00:00 19.63333 C 21.8667 %
824 03-07-2019 00:00:00 18.14583 C 22.9833 %
825 04-07-2019 00:00:00 18.95917 C 21.7583 %
Sensor: Nr:Datum:Temp:Feuchte:
Aussen-T/F 826 05-07-2019 00:00:00 21.28 C 20.0000 %
827 06-07-2019 00:00:00 21.86 C 21.2917 %
828 07-07-2019 00:00:00 17.9975 C 24.5833 %
829 08-07-2019 00:00:00 14.77583 C 24.3917 %
830 09-07-2019 00:00:00 15.65583 C 24.6667 %
831 10-07-2019 00:00:00 17.64083 C 24.2083 %
832 11-07-2019 00:00:00 17.65083 C 31.2583 %
833 12-07-2019 00:00:00 17.16583 C 43.6333 %
834 13-07-2019 00:00:00 17.9575 C 34.1250 %
835 14-07-2019 00:00:00 17.12917 C 26.6667 %
836 15-07-2019 00:00:00 16.56667 C 21.0917 %
837 16-07-2019 00:00:00 16.26 C 28.0333 %
838 17-07-2019 00:00:00 17.56833 C 29.2083 %
839 18-07-2019 00:00:00 19.38333 C 28.1917 %
840 19-07-2019 00:00:00 20.12667 C 31.9750 %
841 20-07-2019 00:00:00 21.81667 C 30.3083 %
842 21-07-2019 00:00:00 22.37333 C 25.8833 %
843 22-07-2019 00:00:00 22.7225 C 26.2833 %
844 23-07-2019 00:00:00 25.34083 C 25.5333 %
845 24-07-2019 00:00:00 27.1975 C 24.2750 %
846 25-07-2019 00:00:00 28.90167 C 21.7333 %
847 26-07-2019 00:00:00 27.54417 C 21.2500 %
848 27-07-2019 00:00:00 23.4375 C 26.6833 %
849 28-07-2019 00:00:00 19.93083 C 38.1333 %
850 29-07-2019 00:00:00 21.45583 C 29.3333 %
Sensor: Nr:Datum:Temp:Feuchte:
Aussen-T/F 851 30-07-2019 00:00:00 22.35833 C 26.7167 %
852 31-07-2019 00:00:00 21.48417 C 20.5333 %
853 01-08-2019 00:00:00 19.83417 C 22.9750 %
854 02-08-2019 00:00:00 20.8775 C 22.8500 %
855 03-08-2019 00:00:00 20.77167 C 24.6333 %
856 04-08-2019 00:00:00 21.00667 C 28.3000 %
857 05-08-2019 00:00:00 22.56833 C 24.9167 %
858 06-08-2019 00:00:00 20.0075 C 30.3333 %
859 07-08-2019 00:00:00 19.10167 C 41.3833 %
860 08-08-2019 00:00:00 20.55667 C 30.6417 %
861 09-08-2019 00:00:00 19.73833 C 39.4583 %
862 10-08-2019 00:00:00 20.72917 C 37.6833 %
863 11-08-2019 00:00:00 17.03333 C 35.9000 %
864 12-08-2019 00:00:00 16.51583 C 38.9833 %
865 13-08-2019 00:00:00 16.10833 C 35.2833 %
866 14-08-2019 00:00:00 16.6875 C 34.0417 %
867 15-08-2019 00:00:00 17.20583 C 40.0250 %
868 16-08-2019 00:00:00 17.84 C 34.2250 %
869 17-08-2019 00:00:00 17.89333 C 38.0750 %
870 18-08-2019 00:00:00 19.71833 C 44.5000 %
871 19-08-2019 00:00:00 18.45167 C 33.8417 %
872 20-08-2019 00:00:00 15.91167 C 33.3250 %
873 21-08-2019 00:00:00 16.52917 C 33.4750 %
874 22-08-2019 00:00:00 17.12333 C 32.3667 %
875 23-08-2019 00:00:00 18.31667 C 31.5083 %
Sensor: Nr:Datum:Temp:Feuchte:
Aussen-T/F 876 24-08-2019 00:00:00 19.36333 C 30.9833 %
877 25-08-2019 00:00:00 21.54583 C 29.8917 %
878 26-08-2019 00:00:00 22.17 C 33.4833 %
879 27-08-2019 00:00:00 22.70333 C 35.1667 %
880 28-08-2019 00:00:00 23.4425 C 30.4583 %
881 29-08-2019 00:00:00 22.20333 C 28.3583 %
882 30-08-2019 00:00:00 21.07 C 29.2583 %
883 31-08-2019 00:00:00 21.975 C 30.7583 %
884 01-09-2019 00:00:00 18.8525 C 26.8333 %
885 02-09-2019 00:00:00 15.49333 C 28.2000 %
886 03-09-2019 00:00:00 15.72917 C 28.0833 %
887 04-09-2019 00:00:00 16.9525 C 33.9667 %
888 05-09-2019 00:00:00 15.59 C 26.2917 %
889 06-09-2019 00:00:00 13.58917 C 31.1917 %
890 07-09-2019 00:00:00 12.6975 C 39.5000 %
891 08-09-2019 00:00:00 12.7439 C 48.5935 %
892 09-09-2019 00:00:00 15.23733 C 38.6667 %
893 10-09-2019 00:00:00 12.20486 C 22.8264 %
894 11-09-2019 00:00:00 13.35556 C 20.8472 %
895 12-09-2019 00:00:00 19.325 C 20.0000 %
896 13-09-2019 00:00:00 17.86806 C 20.1111 %
897 14-09-2019 00:00:00 15.93333 C 22.4375 %
898 15-09-2019 00:00:00 15.65694 C 21.2778 %
899 16-09-2019 00:00:00 16.21389 C 20.0000 %
900 17-09-2019 00:00:00 15.87708 C 20.0000 %
Sensor: Nr:Datum:Temp:Feuchte:
Aussen-T/F 901 18-09-2019 00:00:00 11.47361 C 20.7917 %
902 19-09-2019 00:00:00 10.53333 C 21.8194 %
903 20-09-2019 00:00:00 10.80486 C 20.8472 %
904 21-09-2019 00:00:00 12.45278 C 20.6597 %
905 22-09-2019 00:00:00 14.78542 C 20.7500 %
906 23-09-2019 00:00:00 16.6875 C 22.1528 %
907 24-09-2019 00:00:00 13.94306 C 26.6319 %
908 25-09-2019 00:00:00 15.31806 C 25.0417 %
909 26-09-2019 00:00:00 16.10903 C 26.0000 %
910 27-09-2019 00:00:00 16.23333 C 23.7708 %
911 28-09-2019 00:00:00 15.40208 C 22.5833 %
912 29-09-2019 00:00:00 16.05972 C 21.6597 %
913 30-09-2019 00:00:00 15.48194 C 21.1319 %
914 01-10-2019 00:00:00 15.84375 C 23.4931 %
915 02-10-2019 00:00:00 12.57569 C 23.6111 %
916 03-10-2019 00:00:00 9.35625 C 27.6944 %
917 04-10-2019 00:00:00 10.03681 C 31.8403 %
918 05-10-2019 00:00:00 10.32986 C 26.5903 %
919 06-10-2019 00:00:00 7.85764 C 34.1250 %
920 07-10-2019 00:00:00 9.80764 C 31.8819 %
921 08-10-2019 00:00:00 12.35833 C 31.0694 %
922 09-10-2019 00:00:00 11.56667 C 27.7431 %
923 10-10-2019 00:00:00 11.49097 C 26.2153 %
924 11-10-2019 00:00:00 12.41458 C 28.8194 %
925 12-10-2019 00:00:00 13.21111 C 29.6875 %
Sensor: Nr:Datum:Temp:Feuchte:
Aussen-T/F 926 13-10-2019 00:00:00 16.35417 C 28.4722 %
927 14-10-2019 00:00:00 15.8125 C 27.6528 %
928 15-10-2019 00:00:00 13.94028 C 29.8611 %
929 16-10-2019 00:00:00 12.42153 C 29.2917 %
930 17-10-2019 00:00:00 14.32708 C 27.4167 %
931 18-10-2019 00:00:00 12.3125 C 29.7292 %
932 19-10-2019 00:00:00 12.78194 C 28.2083 %
933 20-10-2019 00:00:00 13.0875 C 34.7778 %
934 21-10-2019 00:00:00 13.30486 C 29.2014 %
935 22-10-2019 00:00:00 11.45 C 27.8819 %
936 23-10-2019 00:00:00 10.68403 C 31.1181 %
937 24-10-2019 00:00:00 13.85208 C 27.9236 %
938 25-10-2019 00:00:00 13.1625 C 24.9444 %
939 26-10-2019 00:00:00 12.72639 C 27.5417 %
940 27-10-2019 00:00:00 9.68467 C 30.8733 %
941 28-10-2019 00:00:00 5.91597 C 35.2014 %
942 29-10-2019 00:00:00 6.21181 C 29.3264 %
943 30-10-2019 00:00:00 2.93333 C 34.5347 %
944 31-10-2019 00:00:00 1.41875 C 34.8333 %
945 01-11-2019 00:00:00 5.44792 C 36.7292 %
946 02-11-2019 00:00:00 12.8125 C 27.6458 %
947 03-11-2019 00:00:00 11.45069 C 29.7639 %
948 04-11-2019 00:00:00 9.88542 C 30.2153 %
949 05-11-2019 00:00:00 9.25069 C 27.4306 %
950 06-11-2019 00:00:00 8.33542 C 34.7014 %
Sensor: Nr:Datum:Temp:Feuchte:
Aussen-T/F 951 07-11-2019 00:00:00 7.30278 C 33.8333 %
952 08-11-2019 00:00:00 4.29028 C 37.7153 %
953 09-11-2019 00:00:00 4.26806 C 33.1111 %
954 10-11-2019 00:00:00 2.51319 C 34.9861 %
955 11-11-2019 00:00:00 4.2 C 27.4792 %
956 12-11-2019 00:00:00 5.41667 C 25.4792 %
957 13-11-2019 00:00:00 4.93472 C 22.9861 %
958 14-11-2019 00:00:00 4.86042 C 26.9861 %
959 15-11-2019 00:00:00 4.08472 C 26.3333 %
960 16-11-2019 00:00:00 1.19444 C 38.8125 %
961 17-11-2019 00:00:00 2.39861 C 40.2708 %
962 18-11-2019 00:00:00 3.51667 C 36.2847 %
963 19-11-2019 00:00:00 3.06736 C 36.5833 %
964 20-11-2019 00:00:00 0.75972 C 37.8403 %
965 21-11-2019 00:00:00 1.18951 C 39.3846 %
966 22-11-2019 00:00:00 3.65972 C 35.6806 %
967 23-11-2019 00:00:00 4.64653 C 33.3889 %
968 24-11-2019 00:00:00 1.99861 C 41.4722 %
969 25-11-2019 00:00:00 4.16319 C 39.3681 %
970 26-11-2019 00:00:00 7.75903 C 34.8472 %
971 27-11-2019 00:00:00 9.72083 C 30.6875 %
972 28-11-2019 00:00:00 10.55833 C 22.1319 %
973 29-11-2019 00:00:00 5.75486 C 30.7639 %
974 30-11-2019 00:00:00 0.48194 C 42.0972 %
975 01-12-2019 00:00:00 1.14236 C 33.0139 %
Sensor: Nr:Datum:Temp:Feuchte:
Aussen-T/F 976 02-12-2019 00:00:00 1.20556 C 36.2986 %
977 03-12-2019 00:00:00 3.97431 C 39.2292 %
978 04-12-2019 00:00:00 0.41389 C 41.6111 %
979 05-12-2019 00:00:00 -2.03194 C 42.0972 %
980 06-12-2019 00:00:00 2.6125 C 34.4722 %
981 07-12-2019 00:00:00 8.20694 C 27.7292 %
982 08-12-2019 00:00:00 9.69931 C 24.2778 %
983 09-12-2019 00:00:00 7.09444 C 23.9722 %
984 10-12-2019 00:00:00 2.37361 C 34.0000 %
985 11-12-2019 00:00:00 3.12569 C 39.3056 %
986 12-12-2019 00:00:00 2.64931 C 37.2500 %
987 13-12-2019 00:00:00 3.25278 C 34.0069 %
988 14-12-2019 00:00:00 6.22222 C 28.0625 %
989 15-12-2019 00:00:00 7.24792 C 30.8958 %
990 16-12-2019 00:00:00 7.47361 C 39.2986 %
991 17-12-2019 00:00:00 9.69514 C 31.9653 %
992 18-12-2019 00:00:00 6.95069 C 37.4792 %
993 19-12-2019 00:00:00 4.60972 C 40.5417 %
994 20-12-2019 00:00:00 6.87778 C 35.7847 %
995 21-12-2019 00:00:00 6.42778 C 32.4306 %
996 22-12-2019 00:00:00 7.57917 C 31.0556 %
997 23-12-2019 00:00:00 7.34861 C 28.6111 %
998 24-12-2019 00:00:00 7.20278 C 29.9097 %
999 25-12-2019 00:00:00 6.91944 C 32.8333 %
1000 26-12-2019 00:00:00 4.25278 C 40.6250 %
Sensor: Nr:Datum:Temp:Feuchte:
Aussen-T/F 1001 27-12-2019 00:00:00 4.41181 C 36.8819 %
1002 28-12-2019 00:00:00 -1.22431 C 42.5000 %
1003 29-12-2019 00:00:00 -2.07708 C 39.8819 %
1004 30-12-2019 00:00:00 -1.99931 C 39.1319 %
1005 31-12-2019 00:00:00 -0.41736 C 39.5556 %
1006 01-01-2020 00:00:00 -0.10764 C 41.3403 %
1007 02-01-2020 00:00:00 0.98958 C 39.7014 %
1008 03-01-2020 00:00:00 7.00972 C 33.4653 %
1009 04-01-2020 00:00:00 4.78264 C 32.5903 %
1010 05-01-2020 00:00:00 5.21806 C 35.8750 %
1011 06-01-2020 00:00:00 2.11667 C 38.1667 %
1012 07-01-2020 00:00:00 4.43611 C 34.6944 %
1013 08-01-2020 00:00:00 7.71389 C 34.4167 %
1014 09-01-2020 00:00:00 10.33542 C 35.2292 %
1015 10-01-2020 00:00:00 8.27917 C 30.8958 %
1016 11-01-2020 00:00:00 3.61806 C 33.7639 %
1017 12-01-2020 00:00:00 4.57083 C 30.3889 %
1018 13-01-2020 00:00:00 5.88472 C 35.0903 %
1019 14-01-2020 00:00:00 9.28264 C 24.1181 %
1020 15-01-2020 00:00:00 10.27083 C 23.7500 %
1021 16-01-2020 00:00:00 7.07569 C 40.1944 %
1022 17-01-2020 00:00:00 5.27986 C 39.1944 %
1023 18-01-2020 00:00:00 3.79028 C 32.6042 %
1024 19-01-2020 00:00:00 3.01389 C 40.8194 %
1025 20-01-2020 00:00:00 1.64861 C 39.3889 %
Sensor: Nr:Datum:Temp:Feuchte:
Aussen-T/F 1026 21-01-2020 00:00:00 -2.675 C 44.7986 %
1027 22-01-2020 00:00:00 -1.95347 C 44.7153 %
1028 23-01-2020 00:00:00 0.53819 C 43.6458 %
1029 24-01-2020 00:00:00 0.81319 C 35.7222 %
1030 25-01-2020 00:00:00 1.99236 C 39.2014 %
1031 26-01-2020 00:00:00 2.13056 C 41.5625 %
1032 27-01-2020 00:00:00 5.48542 C 39.8264 %
1033 28-01-2020 00:00:00 5.07708 C 30.3750 %
1034 29-01-2020 00:00:00 4.20764 C 29.8611 %
1035 30-01-2020 00:00:00 7.57569 C 29.5694 %
1036 31-01-2020 00:00:00 12.86181 C 27.9167 %
1037 01-02-2020 00:00:00 11.16597 C 32.0972 %
1038 02-02-2020 00:00:00 9.925 C 31.1319 %
1039 03-02-2020 00:00:00 10.19236 C 29.5139 %
1040 04-02-2020 00:00:00 4.29514 C 36.4097 %
1041 05-02-2020 00:00:00 3.05069 C 37.1458 %
1042 06-02-2020 00:00:00 0.04514 C 42.7500 %
1043 07-02-2020 00:00:00 -0.30764 C 42.8264 %
1044 08-02-2020 00:00:00 1.01389 C 43.0069 %
1045 09-02-2020 00:00:00 8.36458 C 32.5764 %
1046 10-02-2020 00:00:00 7.85 C 31.3611 %
1047 11-02-2020 00:00:00 5.29167 C 24.6597 %
1048 12-02-2020 00:00:00 4.32083 C 30.5972 %
1049 13-02-2020 00:00:00 3.32917 C 42.1250 %
1050 14-02-2020 00:00:00 5.46458 C 39.2639 %
Sensor: Nr:Datum:Temp:Feuchte:
Aussen-T/F 1051 15-02-2020 00:00:00 5.89931 C 38.0278 %
1052 16-02-2020 00:00:00 14.44931 C 23.2431 %
1053 17-02-2020 00:00:00 8.25903 C 32.4167 %
1054 18-02-2020 00:00:00 6.89097 C 31.0347 %
1055 19-02-2020 00:00:00 5.73889 C 30.1875 %
1056 20-02-2020 00:00:00 7.7125 C 32.9722 %
1057 21-02-2020 00:00:00 4.71042 C 33.5972 %
1058 22-02-2020 00:00:00 7.67986 C 30.0347 %
1059 23-02-2020 00:00:00 10.01389 C 35.3403 %
1060 24-02-2020 00:00:00 7.74653 C 36.3194 %
1061 25-02-2020 00:00:00 8.81597 C 32.2778 %
1062 26-02-2020 00:00:00 4.37431 C 33.6806 %
1063 27-02-2020 00:00:00 2.22153 C 41.6806 %
1064 28-02-2020 00:00:00 3.52431 C 38.4514 %
1065 29-02-2020 00:00:00 8.60556 C 34.8889 %
1066 01-03-2020 00:00:00 7.15694 C 36.0000 %
1067 02-03-2020 00:00:00 5.99375 C 40.1667 %
1068 03-03-2020 00:00:00 4.26806 C 39.6458 %
1069 04-03-2020 00:00:00 5.28958 C 37.5764 %
1070 05-03-2020 00:00:00 5.45764 C 43.0833 %
1071 06-03-2020 00:00:00 5.63958 C 40.4931 %
1072 07-03-2020 00:00:00 6.26458 C 33.7569 %
1073 08-03-2020 00:00:00 9.46458 C 32.2361 %
1074 09-03-2020 00:00:00 7.81875 C 35.4514 %
1075 10-03-2020 00:00:00 9.06181 C 39.4514 %
Sensor: Nr:Datum:Temp:Feuchte:
Aussen-T/F 1076 11-03-2020 00:00:00 14.0375 C 35.2639 %
1077 12-03-2020 00:00:00 11.01597 C 30.3681 %
1078 13-03-2020 00:00:00 6.99236 C 33.4236 %
1079 14-03-2020 00:00:00 5.89028 C 38.1667 %
1080 15-03-2020 00:00:00 9.14653 C 32.2153 %
1081 16-03-2020 00:00:00 9.43264 C 35.6667 %
1082 17-03-2020 00:00:00 12.02708 C 33.7847 %
1083 18-03-2020 00:00:00 9.92639 C 36.2153 %
1084 19-03-2020 00:00:00 12.58194 C 32.0417 %
1085 20-03-2020 00:00:00 10.52657 C 36.2308 %
1086 21-03-2020 00:00:00 5.89653 C 34.6597 %
1087 22-03-2020 00:00:00 4.30139 C 28.5278 %
1088 23-03-2020 00:00:00 3.12292 C 27.0764 %
1089 24-03-2020 00:00:00 2.82431 C 27.8403 %
1090 25-03-2020 00:00:00 3.67014 C 25.0486 %
1091 26-03-2020 00:00:00 5.25486 C 23.4931 %
1092 27-03-2020 00:00:00 8.10139 C 29.8819 %
1093 28-03-2020 00:00:00 9.69236 C 30.9306 %
1094 29-03-2020 00:00:00 5.0942 C 30.1377 %
1095 30-03-2020 00:00:00 2.89028 C 29.9167 %
1096 31-03-2020 00:00:00 5.79792 C 30.1528 %
Sensor: Nr:Datum:Temp:Feuchte:
G-T/H 1 01-04-2017 00:00:00 13.5225 C 61.1333 %
2 02-04-2017 00:00:00 13.045 C 62.0500 %
3 03-04-2017 00:00:00 12.37917 C 61.7583 %
4 04-04-2017 00:00:00 11.70917 C 61.7250 %
5 05-04-2017 00:00:00 11.2225 C 60.3000 %
6 06-04-2017 00:00:00 11.25083 C 61.8833 %
7 07-04-2017 00:00:00 11.30833 C 61.5667 %
8 08-04-2017 00:00:00 12.10917 C 64.3167 %
9 09-04-2017 00:00:00 11.93083 C 63.3250 %
10 10-04-2017 00:00:00 12.2625 C 64.3417 %
11 11-04-2017 00:00:00 11.93333 C 61.3750 %
12 12-04-2017 00:00:00 11.73417 C 62.1250 %
13 13-04-2017 00:00:00 12.4775 C 62.8750 %
14 14-04-2017 00:00:00 12.10583 C 60.6583 %
15 15-04-2017 00:00:00 11.93917 C 62.9917 %
16 16-04-2017 00:00:00 11.1475 C 62.5750 %
17 17-04-2017 00:00:00 10.5075 C 62.2583 %
18 18-04-2017 00:00:00 9.84833 C 61.1750 %
19 19-04-2017 00:00:00 9.13917 C 59.2667 %
20 20-04-2017 00:00:00 8.37167 C 53.2417 %
21 21-04-2017 00:00:00 9.44167 C 57.5750 %
22 22-04-2017 00:00:00 10.7925 C 61.3833 %
23 23-04-2017 00:00:00 10.56417 C 59.6333 %
24 24-04-2017 00:00:00 10.66583 C 57.9750 %
25 25-04-2017 00:00:00 11.07395 C 57.7143 %
Sensor: Nr:Datum:Temp:Feuchte:
G-T/H 26 26-04-2017 00:00:00 10.9975 C 52.8000 %
27 27-04-2017 00:00:00 10.80167 C 55.5250 %
28 28-04-2017 00:00:00 9.695 C 54.5000 %
29 29-04-2017 00:00:00 10.51083 C 59.0833 %
30 30-04-2017 00:00:00 11.60583 C 55.6167 %
31 01-05-2017 00:00:00 12.7 C 56.0000 %
32 02-05-2017 00:00:00 11.525 C 63.9432 %
33 03-05-2017 00:00:00 11.48417 C 65.4750 %
34 04-05-2017 00:00:00 12.02333 C 66.8667 %
35 05-05-2017 00:00:00 12.46583 C 66.8917 %
36 06-05-2017 00:00:00 12.505 C 65.2333 %
37 07-05-2017 00:00:00 13.83043 C 67.2696 %
38 08-05-2017 00:00:00 12.83417 C 66.4333 %
39 09-05-2017 00:00:00 12.20583 C 62.3250 %
40 10-05-2017 00:00:00 12.52917 C 54.6833 %
41 11-05-2017 00:00:00 13.12917 C 60.2667 %
42 12-05-2017 00:00:00 14.3375 C 64.2333 %
43 13-05-2017 00:00:00 14.86667 C 65.6583 %
44 14-05-2017 00:00:00 15.34083 C 65.8667 %
45 15-05-2017 00:00:00 16.35667 C 54.4250 %
46 16-05-2017 00:00:00 18.42417 C 50.3083 %
47 17-05-2017 00:00:00 19.76083 C 51.8500 %
48 18-05-2017 00:00:00 18.36833 C 59.9083 %
49 19-05-2017 00:00:00 16.6075 C 64.9333 %
50 20-05-2017 00:00:00 14.935 C 64.1833 %
Sensor: Nr:Datum:Temp:Feuchte:
G-T/H 51 21-05-2017 00:00:00 15.3875 C 58.0667 %
52 22-05-2017 00:00:00 16.8975 C 56.7000 %
53 23-05-2017 00:00:00 17.30167 C 60.5667 %
54 24-05-2017 00:00:00 17.77333 C 59.5750 %
55 25-05-2017 00:00:00 17.38 C 63.0583 %
56 26-05-2017 00:00:00 18.09583 C 61.1583 %
57 27-05-2017 00:00:00 17.95583 C 63.3917 %
58 28-05-2017 00:00:00 18.6625 C 65.0333 %
59 29-05-2017 00:00:00 22.53667 C 59.7333 %
60 30-05-2017 00:00:00 22.135 C 60.5250 %
61 31-05-2017 00:00:00 19.19583 C 54.8917 %
62 01-06-2017 00:00:00 19.02333 C 60.4250 %
63 02-06-2017 00:00:00 19.42667 C 64.1667 %
64 03-06-2017 00:00:00 18.96167 C 68.0500 %
65 04-06-2017 00:00:00 18.245 C 68.2333 %
66 05-06-2017 00:00:00 17.78167 C 63.8583 %
67 06-06-2017 00:00:00 17.53167 C 62.7417 %
68 07-06-2017 00:00:00 16.31 C 63.1083 %
69 08-06-2017 00:00:00 17.10583 C 63.0167 %
70 09-06-2017 00:00:00 17.65833 C 65.4167 %
71 10-06-2017 00:00:00 17.03667 C 64.8083 %
72 11-06-2017 00:00:00 17.98917 C 66.8667 %
73 12-06-2017 00:00:00 20.2225 C 51.9750 %
74 13-06-2017 00:00:00 19.605 C 52.3167 %
75 14-06-2017 00:00:00 20.2375 C 52.8333 %
Sensor: Nr:Datum:Temp:Feuchte:
G-T/H 76 15-06-2017 00:00:00 22.41083 C 52.1917 %
77 16-06-2017 00:00:00 21.05417 C 50.7750 %
78 17-06-2017 00:00:00 19.55083 C 56.9583 %
79 18-06-2017 00:00:00 19.47917 C 61.1333 %
80 19-06-2017 00:00:00 21.37083 C 53.8417 %
81 20-06-2017 00:00:00 23.81417 C 48.4333 %
82 21-06-2017 00:00:00 23.19167 C 55.3333 %
83 22-06-2017 00:00:00 24.54167 C 57.7417 %
84 23-06-2017 00:00:00 23.06 C 57.7583 %
85 24-06-2017 00:00:00 22.64 C 51.3500 %
86 25-06-2017 00:00:00 21.49083 C 54.8583 %
87 26-06-2017 00:00:00 21.5775 C 55.2833 %
88 27-06-2017 00:00:00 20.69417 C 59.6083 %
89 28-06-2017 00:00:00 19.86 C 64.0167 %
90 29-06-2017 00:00:00 19.49417 C 65.1083 %
91 30-06-2017 00:00:00 19.17167 C 60.7667 %
92 01-07-2017 00:00:00 18.81833 C 64.2833 %
93 02-07-2017 00:00:00 18.1925 C 66.6917 %
94 03-07-2017 00:00:00 19.315 C 56.5417 %
95 04-07-2017 00:00:00 20.50083 C 54.7667 %
96 05-07-2017 00:00:00 21.10917 C 57.5583 %
97 06-07-2017 00:00:00 21.4425 C 61.7000 %
98 07-07-2017 00:00:00 21.30333 C 64.3833 %
99 08-07-2017 00:00:00 22.9425 C 56.5250 %
100 09-07-2017 00:00:00 22.685 C 59.5417 %
Sensor: Nr:Datum:Temp:Feuchte:
G-T/H 101 10-07-2017 00:00:00 21.98167 C 63.7417 %
102 11-07-2017 00:00:00 21.20417 C 60.4000 %
103 12-07-2017 00:00:00 20.39167 C 63.4250 %
104 13-07-2017 00:00:00 18.97917 C 57.3833 %
105 14-07-2017 00:00:00 18.96417 C 57.4250 %
106 15-07-2017 00:00:00 18.67083 C 60.6333 %
107 16-07-2017 00:00:00 19.535 C 63.6583 %
108 17-07-2017 00:00:00 19.89917 C 65.6333 %
109 18-07-2017 00:00:00 21.48667 C 62.7583 %
110 19-07-2017 00:00:00 23.825 C 58.2333 %
111 20-07-2017 00:00:00 22.49083 C 62.1083 %
112 21-07-2017 00:00:00 21.79917 C 56.1083 %
113 22-07-2017 00:00:00 22.77167 C 60.8833 %
114 23-07-2017 00:00:00 20.45167 C 59.6000 %
115 24-07-2017 00:00:00 19.83667 C 60.9500 %
116 25-07-2017 00:00:00 18.2725 C 64.9333 %
117 26-07-2017 00:00:00 17.95417 C 67.3667 %
118 27-07-2017 00:00:00 18.53667 C 68.7167 %
119 28-07-2017 00:00:00 18.61833 C 68.6833 %
120 29-07-2017 00:00:00 19.14917 C 68.9333 %
121 30-07-2017 00:00:00 20.87667 C 66.4833 %
122 31-07-2017 00:00:00 21.91167 C 61.1500 %
123 01-08-2017 00:00:00 20.985 C 66.8500 %
124 02-08-2017 00:00:00 21.5925 C 67.6250 %
125 03-08-2017 00:00:00 22.08 C 67.0000 %
Sensor: Nr:Datum:Temp:Feuchte:
G-T/H 126 04-08-2017 00:00:00 21.2975 C 66.9500 %
127 05-08-2017 00:00:00 21.27333 C 64.2583 %
128 06-08-2017 00:00:00 20.1425 C 61.5500 %
129 07-08-2017 00:00:00 19.51083 C 54.8250 %
130 08-08-2017 00:00:00 19.4725 C 62.0000 %
131 09-08-2017 00:00:00 19.2825 C 61.9750 %
132 10-08-2017 00:00:00 18.88083 C 65.6083 %
133 11-08-2017 00:00:00 17.85167 C 68.4083 %
134 12-08-2017 00:00:00 17.38667 C 69.6917 %
135 13-08-2017 00:00:00 17.925 C 70.8917 %
136 14-08-2017 00:00:00 19.18583 C 69.3417 %
137 15-08-2017 00:00:00 19.95167 C 75.4000 %
138 16-08-2017 00:00:00 20.395 C 70.4750 %
139 17-08-2017 00:00:00 20.77833 C 67.9583 %
140 18-08-2017 00:00:00 20.07417 C 69.9500 %
141 19-08-2017 00:00:00 18.63167 C 65.2583 %
142 20-08-2017 00:00:00 18.18833 C 65.5833 %
143 21-08-2017 00:00:00 18.33833 C 61.8250 %
144 22-08-2017 00:00:00 18.3375 C 62.2833 %
145 23-08-2017 00:00:00 19.39 C 63.6250 %
146 24-08-2017 00:00:00 19.39667 C 66.6750 %
147 25-08-2017 00:00:00 19.01417 C 68.4583 %
148 26-08-2017 00:00:00 19.33833 C 70.7917 %
149 27-08-2017 00:00:00 19.525 C 71.7250 %
150 28-08-2017 00:00:00 20.30583 C 68.8833 %
Sensor: Nr:Datum:Temp:Feuchte:
G-T/H 151 29-08-2017 00:00:00 21.09333 C 67.8833 %
152 30-08-2017 00:00:00 20.41167 C 70.1917 %
153 31-08-2017 00:00:00 19.86975 C 70.1176 %
154 01-09-2017 00:00:00 18.04083 C 64.9250 %
155 02-09-2017 00:00:00 17.755 C 68.6500 %
156 03-09-2017 00:00:00 16.90667 C 68.1250 %
157 04-09-2017 00:00:00 16.00917 C 69.3750 %
158 05-09-2017 00:00:00 18.28917 C 72.6000 %
159 06-09-2017 00:00:00 18.70833 C 64.8917 %
160 07-09-2017 00:00:00 17.72833 C 62.5167 %
161 08-09-2017 00:00:00 17.6225 C 64.3417 %
162 09-09-2017 00:00:00 17.3775 C 67.9250 %
163 10-09-2017 00:00:00 16.50417 C 66.3083 %
164 11-09-2017 00:00:00 16.29333 C 68.5500 %
165 12-09-2017 00:00:00 16.13083 C 70.5250 %
166 13-09-2017 00:00:00 15.99917 C 71.1667 %
167 14-09-2017 00:00:00 15.7775 C 71.3250 %
168 15-09-2017 00:00:00 15.14 C 71.7083 %
169 16-09-2017 00:00:00 14.15 C 67.6833 %
170 17-09-2017 00:00:00 14.06833 C 69.8750 %
171 18-09-2017 00:00:00 13.68417 C 70.3917 %
172 19-09-2017 00:00:00 14.2875 C 73.3667 %
173 20-09-2017 00:00:00 14.18167 C 72.9250 %
174 21-09-2017 00:00:00 14.33333 C 68.9000 %
175 22-09-2017 00:00:00 14.20083 C 71.1333 %
Sensor: Nr:Datum:Temp:Feuchte:
G-T/H 176 23-09-2017 00:00:00 14.86583 C 71.6917 %
177 24-09-2017 00:00:00 13.5 C 74.4750 %
178 25-09-2017 00:00:00 14.49667 C 74.4000 %
179 26-09-2017 00:00:00 14.90833 C 74.1417 %
180 27-09-2017 00:00:00 15.24333 C 75.2000 %
181 28-09-2017 00:00:00 15.29833 C 75.7917 %
182 29-09-2017 00:00:00 16.4625 C 76.9750 %
183 30-09-2017 00:00:00 16.51167 C 76.8667 %
184 01-10-2017 00:00:00 15.07167 C 73.4917 %
185 02-10-2017 00:00:00 14.96167 C 75.8333 %
186 03-10-2017 00:00:00 15.05583 C 75.3167 %
187 04-10-2017 00:00:00 14.14417 C 72.4833 %
188 05-10-2017 00:00:00 14.39917 C 74.4417 %
189 06-10-2017 00:00:00 13.515 C 72.0000 %
190 07-10-2017 00:00:00 13.36583 C 74.1000 %
191 08-10-2017 00:00:00 13.59833 C 76.1167 %
192 09-10-2017 00:00:00 13.71417 C 76.4750 %
193 10-10-2017 00:00:00 14.10667 C 77.2250 %
194 11-10-2017 00:00:00 14.48833 C 77.7500 %
195 12-10-2017 00:00:00 14.45833 C 77.2083 %
196 13-10-2017 00:00:00 14.39417 C 77.1167 %
197 14-10-2017 00:00:00 14.55667 C 77.2000 %
198 15-10-2017 00:00:00 14.22167 C 77.1917 %
199 16-10-2017 00:00:00 14.72417 C 80.6250 %
200 17-10-2017 00:00:00 14.50583 C 80.0333 %
Sensor: Nr:Datum:Temp:Feuchte:
G-T/H 201 18-10-2017 00:00:00 14.23 C 79.1833 %
202 19-10-2017 00:00:00 13.8025 C 76.9750 %
203 20-10-2017 00:00:00 14.11261 C 77.8235 %
204 21-10-2017 00:00:00 13.58417 C 75.6250 %
205 22-10-2017 00:00:00 13.64333 C 74.5083 %
206 23-10-2017 00:00:00 13.15167 C 73.8667 %
207 24-10-2017 00:00:00 13.7125 C 77.3167 %
208 25-10-2017 00:00:00 14.60167 C 78.0000 %
209 26-10-2017 00:00:00 14.7325 C 78.0000 %
210 27-10-2017 00:00:00 14.395 C 76.2583 %
211 28-10-2017 00:00:00 13.38917 C 71.6000 %
212 29-10-2017 00:00:00 13.2736 C 70.4000 %
213 30-10-2017 00:00:00 11.94167 C 67.1167 %
214 31-10-2017 00:00:00 11.315 C 67.7083 %
215 01-11-2017 00:00:00 11.75833 C 71.3750 %
216 02-11-2017 00:00:00 11.43667 C 71.0500 %
217 03-11-2017 00:00:00 11.36333 C 71.6167 %
218 04-11-2017 00:00:00 11.05083 C 71.6417 %
219 05-11-2017 00:00:00 11.7925 C 73.8417 %
220 06-11-2017 00:00:00 10.80417 C 68.9083 %
221 07-11-2017 00:00:00 10.16167 C 68.1500 %
222 08-11-2017 00:00:00 10.51583 C 72.8417 %
223 09-11-2017 00:00:00 10.89833 C 74.4833 %
224 10-11-2017 00:00:00 10.70833 C 72.4333 %
225 11-11-2017 00:00:00 10.25917 C 71.3500 %
Sensor: Nr:Datum:Temp:Feuchte:
G-T/H 226 12-11-2017 00:00:00 9.99417 C 71.9333 %
227 13-11-2017 00:00:00 9.82667 C 72.4833 %
228 14-11-2017 00:00:00 9.44833 C 71.5833 %
229 15-11-2017 00:00:00 9.78417 C 73.4833 %
230 16-11-2017 00:00:00 9.8675 C 71.0000 %
231 17-11-2017 00:00:00 10.21917 C 72.6917 %
232 18-11-2017 00:00:00 8.93333 C 68.2833 %
233 19-11-2017 00:00:00 9.44917 C 70.7667 %
234 20-11-2017 00:00:00 9.4175 C 70.1500 %
235 21-11-2017 00:00:00 10.07833 C 73.5833 %
236 22-11-2017 00:00:00 10.72 C 73.9917 %
237 23-11-2017 00:00:00 10.0175 C 71.3000 %
238 24-11-2017 00:00:00 11.32583 C 75.4750 %
239 25-11-2017 00:00:00 10.815 C 70.9083 %
240 26-11-2017 00:00:00 9.25 C 65.7167 %
241 27-11-2017 00:00:00 9.09917 C 68.4083 %
242 28-11-2017 00:00:00 9.38167 C 70.0917 %
243 29-11-2017 00:00:00 8.70583 C 68.4167 %
244 30-11-2017 00:00:00 8.38083 C 67.8167 %
245 01-12-2017 00:00:00 7.8275 C 66.9750 %
246 02-12-2017 00:00:00 6.8025 C 64.3667 %
247 03-12-2017 00:00:00 7.2 C 63.1583 %
248 04-12-2017 00:00:00 7.5275 C 69.7417 %
249 05-12-2017 00:00:00 8.31833 C 73.2750 %
250 06-12-2017 00:00:00 8.98333 C 73.6833 %
Sensor: Nr:Datum:Temp:Feuchte:
G-T/H 251 07-12-2017 00:00:00 8.76667 C 67.2083 %
252 08-12-2017 00:00:00 8.66917 C 66.2417 %
253 09-12-2017 00:00:00 7.4925 C 59.9167 %
254 10-12-2017 00:00:00 7.18333 C 64.1750 %
255 11-12-2017 00:00:00 7.94417 C 72.5667 %
256 12-12-2017 00:00:00 8.19083 C 68.4083 %
257 13-12-2017 00:00:00 7.93917 C 67.1333 %
258 14-12-2017 00:00:00 7.92667 C 69.1000 %
259 15-12-2017 00:00:00 7.94167 C 70.5000 %
260 16-12-2017 00:00:00 7.925 C 71.0833 %
261 17-12-2017 00:00:00 7.8375 C 69.7667 %
262 18-12-2017 00:00:00 7.10333 C 67.6500 %
263 19-12-2017 00:00:00 7.60417 C 70.4667 %
264 20-12-2017 00:00:00 8.29083 C 73.0000 %
265 21-12-2017 00:00:00 9.43333 C 74.8833 %
266 22-12-2017 00:00:00 10.32333 C 75.8833 %
267 23-12-2017 00:00:00 10.45667 C 76.0750 %
268 24-12-2017 00:00:00 10.61417 C 75.9000 %
269 25-12-2017 00:00:00 10.30833 C 71.7667 %
270 26-12-2017 00:00:00 9.0975 C 68.1083 %
271 27-12-2017 00:00:00 8.905 C 71.4083 %
272 28-12-2017 00:00:00 8.96167 C 70.6417 %
273 29-12-2017 00:00:00 14.36852 C 70.8611 %
274 30-12-2017 00:00:00 8.1925 C 73.4750 %
275 31-12-2017 00:00:00 10.73 C 74.9167 %
Sensor: Nr:Datum:Temp:Feuchte:
G-T/H 276 01-01-2018 00:00:00 10.91333 C 70.9167 %
277 02-01-2018 00:00:00 9.93833 C 71.7000 %
278 03-01-2018 00:00:00 9.98417 C 71.9333 %
279 04-01-2018 00:00:00 9.81167 C 73.7667 %
280 05-01-2018 00:00:00 10.06833 C 72.5333 %
281 06-01-2018 00:00:00 9.95417 C 74.1667 %
282 07-01-2018 00:00:00 9.5275 C 72.0083 %
283 08-01-2018 00:00:00 8.9575 C 69.3000 %
284 09-01-2018 00:00:00 8.81583 C 71.4583 %
285 10-01-2018 00:00:00 9.03917 C 73.1917 %
286 11-01-2018 00:00:00 9.4725 C 74.4333 %
287 12-01-2018 00:00:00 9.7375 C 75.0000 %
288 13-01-2018 00:00:00 9.48 C 71.6333 %
289 14-01-2018 00:00:00 8.7325 C 64.1833 %
290 15-01-2018 00:00:00 8.00083 C 65.2500 %
291 16-01-2018 00:00:00 8.6025 C 70.4000 %
292 17-01-2018 00:00:00 8.19 C 66.7833 %
293 18-01-2018 00:00:00 8.2875 C 68.1000 %
294 19-01-2018 00:00:00 8.47333 C 67.2417 %
295 20-01-2018 00:00:00 7.515 C 67.7833 %
296 21-01-2018 00:00:00 7.5275 C 70.9250 %
297 22-01-2018 00:00:00 7.75 C 71.9417 %
298 23-01-2018 00:00:00 8.69492 C 73.4661 %
299 24-01-2018 00:00:00 9.75556 C 74.8120 %
300 25-01-2018 00:00:00 10.6075 C 75.1917 %
Sensor: Nr:Datum:Temp:Feuchte:
G-T/H 301 26-01-2018 00:00:00 10.3125 C 74.1917 %
302 27-01-2018 00:00:00 9.54 C 72.2583 %
303 28-01-2018 00:00:00 9.4625 C 73.1917 %
304 29-01-2018 00:00:00 10.13833 C 74.2667 %
305 30-01-2018 00:00:00 9.76167 C 71.3917 %
306 31-01-2018 00:00:00 9.43 C 72.7083 %
307 01-02-2018 00:00:00 8.55 C 67.8083 %
308 02-02-2018 00:00:00 7.83917 C 68.3833 %
309 03-02-2018 00:00:00 7.98992 C 68.2521 %
310 04-02-2018 00:00:00 7.4 C 63.4333 %
311 05-02-2018 00:00:00 6.47 C 60.2917 %
312 06-02-2018 00:00:00 6.30833 C 61.8333 %
313 07-02-2018 00:00:00 6.2075 C 63.0250 %
314 08-02-2018 00:00:00 5.975 C 61.9833 %
315 09-02-2018 00:00:00 5.43333 C 63.6917 %
316 10-02-2018 00:00:00 6.105 C 66.3083 %
317 11-02-2018 00:00:00 6.99167 C 66.3833 %
318 12-02-2018 00:00:00 7.07833 C 64.5250 %
319 13-02-2018 00:00:00 6.335 C 60.4167 %
320 14-02-2018 00:00:00 5.87917 C 61.6500 %
321 15-02-2018 00:00:00 5.88583 C 66.8833 %
322 16-02-2018 00:00:00 6.29667 C 70.6750 %
323 17-02-2018 00:00:00 6.07083 C 67.1000 %
324 18-02-2018 00:00:00 5.89667 C 66.5500 %
325 19-02-2018 00:00:00 5.89083 C 68.3167 %
Sensor: Nr:Datum:Temp:Feuchte:
G-T/H 326 20-02-2018 00:00:00 6.01 C 66.1333 %
327 21-02-2018 00:00:00 5.89083 C 63.8500 %
328 22-02-2018 00:00:00 5.73333 C 61.2667 %
329 23-02-2018 00:00:00 5.48583 C 60.5583 %
330 24-02-2018 00:00:00 5.12583 C 59.3667 %
331 25-02-2018 00:00:00 4.93667 C 56.8667 %
332 26-02-2018 00:00:00 4.61167 C 55.2417 %
333 27-02-2018 00:00:00 4.5275 C 52.9667 %
334 28-02-2018 00:00:00 4.28667 C 51.9750 %
335 01-03-2018 00:00:00 4.305 C 53.0333 %
336 02-03-2018 00:00:00 4.77417 C 54.7917 %
337 03-03-2018 00:00:00 5.21917 C 60.2833 %
338 04-03-2018 00:00:00 6.01083 C 65.3000 %
339 05-03-2018 00:00:00 7.26 C 67.7083 %
340 06-03-2018 00:00:00 7.275 C 64.2583 %
341 07-03-2018 00:00:00 8.05833 C 67.2083 %
342 08-03-2018 00:00:00 8.30667 C 69.2500 %
343 09-03-2018 00:00:00 8.13 C 70.0750 %
344 10-03-2018 00:00:00 8.92167 C 72.5500 %
345 11-03-2018 00:00:00 10.33 C 74.6417 %
346 12-03-2018 00:00:00 10.33667 C 74.2417 %
347 13-03-2018 00:00:00 10.06083 C 73.3417 %
348 14-03-2018 00:00:00 9.31667 C 70.8667 %
349 15-03-2018 00:00:00 8.67083 C 68.2833 %
350 16-03-2018 00:00:00 9.4175 C 72.0250 %
Sensor: Nr:Datum:Temp:Feuchte:
G-T/H 351 17-03-2018 00:00:00 8.13333 C 61.2417 %
352 18-03-2018 00:00:00 6.64 C 57.5417 %
353 19-03-2018 00:00:00 6.395 C 58.4417 %
354 20-03-2018 00:00:00 6.19167 C 59.8333 %
355 21-03-2018 00:00:00 6.24 C 61.0167 %
356 22-03-2018 00:00:00 6.45333 C 62.8500 %
357 23-03-2018 00:00:00 7.555 C 68.1250 %
358 24-03-2018 00:00:00 7.95833 C 66.2333 %
359 25-03-2018 00:00:00 7.42522 C 63.5130 %
360 26-03-2018 00:00:00 8.47583 C 65.8417 %
361 27-03-2018 00:00:00 8.32583 C 65.0083 %
362 28-03-2018 00:00:00 9.05 C 70.1833 %
363 29-03-2018 00:00:00 9.1875 C 67.9333 %
364 30-03-2018 00:00:00 8.73083 C 65.5333 %
365 31-03-2018 00:00:00 9.3075 C 68.4417 %
366 01-04-2018 00:00:00 9.65917 C 69.4500 %
367 02-04-2018 00:00:00 9.52333 C 68.1000 %
368 03-04-2018 00:00:00 10.725 C 69.7000 %
369 04-04-2018 00:00:00 11.48583 C 70.6333 %
370 05-04-2018 00:00:00 10.94833 C 68.8000 %
371 06-04-2018 00:00:00 9.26167 C 62.4833 %
372 07-04-2018 00:00:00 10.58667 C 62.3917 %
373 08-04-2018 00:00:00 13.47 C 59.0417 %
374 09-04-2018 00:00:00 14.53917 C 57.1667 %
375 10-04-2018 00:00:00 13.77667 C 63.5000 %
Sensor: Nr:Datum:Temp:Feuchte:
G-T/H 376 11-04-2018 00:00:00 13.00917 C 66.6083 %
377 12-04-2018 00:00:00 12.9425 C 66.9917 %
378 13-04-2018 00:00:00 12.73333 C 67.2917 %
379 14-04-2018 00:00:00 13.63417 C 61.7667 %
380 15-04-2018 00:00:00 13.92167 C 65.0333 %
381 16-04-2018 00:00:00 14.52167 C 62.0000 %
382 17-04-2018 00:00:00 14.20333 C 61.1500 %
383 18-04-2018 00:00:00 14.54417 C 62.2333 %
384 19-04-2018 00:00:00 14.79583 C 62.5583 %
385 20-04-2018 00:00:00 15.73333 C 61.3833 %
386 21-04-2018 00:00:00 15.80333 C 63.5083 %
387 22-04-2018 00:00:00 15.78333 C 66.2917 %
388 23-04-2018 00:00:00 17.01667 C 62.7833 %
389 24-04-2018 00:00:00 16.23833 C 56.5917 %
390 25-04-2018 00:00:00 15.21833 C 62.0333 %
391 26-04-2018 00:00:00 13.76 C 51.5583 %
392 27-04-2018 00:00:00 13.61917 C 56.6250 %
393 28-04-2018 00:00:00 13.9325 C 61.2917 %
394 29-04-2018 00:00:00 14.02083 C 64.6000 %
395 30-04-2018 00:00:00 14.6725 C 64.2917 %
396 01-05-2018 00:00:00 13.36417 C 58.0083 %
397 02-05-2018 00:00:00 13.24833 C 56.1500 %
398 03-05-2018 00:00:00 13.77 C 57.8750 %
399 04-05-2018 00:00:00 13.83917 C 58.3750 %
400 05-05-2018 00:00:00 15.43167 C 55.9333 %
Sensor: Nr:Datum:Temp:Feuchte:
G-T/H 401 06-05-2018 00:00:00 15.6825 C 57.6750 %
402 07-05-2018 00:00:00 17.61 C 52.7917 %
403 08-05-2018 00:00:00 18.74917 C 49.1583 %
404 09-05-2018 00:00:00 17.61417 C 55.5167 %
405 10-05-2018 00:00:00 16.74583 C 61.1667 %
406 11-05-2018 00:00:00 15.555 C 63.3500 %
407 12-05-2018 00:00:00 15.79083 C 63.9333 %
408 13-05-2018 00:00:00 16.08833 C 66.4583 %
409 14-05-2018 00:00:00 15.57667 C 68.2083 %
410 15-05-2018 00:00:00 16.8825 C 59.6083 %
411 16-05-2018 00:00:00 16.71333 C 63.0083 %
412 17-05-2018 00:00:00 15.91 C 63.1083 %
413 18-05-2018 00:00:00 15.1975 C 60.7083 %
414 19-05-2018 00:00:00 15.0375 C 63.1750 %
415 20-05-2018 00:00:00 15.13333 C 64.4667 %
416 21-05-2018 00:00:00 16.85667 C 64.3167 %
417 22-05-2018 00:00:00 17.2475 C 65.6333 %
418 23-05-2018 00:00:00 16.85417 C 68.0583 %
419 24-05-2018 00:00:00 16.56417 C 69.4500 %
420 25-05-2018 00:00:00 17.3275 C 69.1583 %
421 26-05-2018 00:00:00 18.92583 C 67.1167 %
422 27-05-2018 00:00:00 18.99167 C 68.2750 %
423 28-05-2018 00:00:00 18.94167 C 69.8667 %
424 29-05-2018 00:00:00 19.4375 C 69.9667 %
425 30-05-2018 00:00:00 19.22417 C 70.2750 %
Sensor: Nr:Datum:Temp:Feuchte:
G-T/H 426 31-05-2018 00:00:00 19.74667 C 69.8500 %
427 01-06-2018 00:00:00 19.70417 C 70.5583 %
428 02-06-2018 00:00:00 19.1175 C 70.5000 %
429 03-06-2018 00:00:00 19.86917 C 66.6000 %
430 04-06-2018 00:00:00 21.16 C 62.4500 %
431 05-06-2018 00:00:00 21.1225 C 62.2500 %
432 06-06-2018 00:00:00 20.28167 C 64.7000 %
433 07-06-2018 00:00:00 20.33167 C 66.7250 %
434 08-06-2018 00:00:00 20.14167 C 68.3250 %
435 09-06-2018 00:00:00 21.14508 C 68.4918 %
436 10-06-2018 00:00:00 20.73583 C 69.4833 %
437 11-06-2018 00:00:00 20.2075 C 70.2833 %
438 12-06-2018 00:00:00 18.93333 C 70.9417 %
439 13-06-2018 00:00:00 17.78333 C 67.8500 %
440 14-06-2018 00:00:00 17.08167 C 65.6167 %
441 15-06-2018 00:00:00 17.87667 C 69.7333 %
442 16-06-2018 00:00:00 19.23167 C 66.0250 %
443 17-06-2018 00:00:00 19.20917 C 66.1250 %
444 18-06-2018 00:00:00 18.5725 C 66.5167 %
445 19-06-2018 00:00:00 19.3025 C 68.1667 %
446 20-06-2018 00:00:00 21.34417 C 62.6417 %
447 21-06-2018 00:00:00 20.40083 C 61.7667 %
448 22-06-2018 00:00:00 18.12583 C 59.1417 %
449 23-06-2018 00:00:00 16.91917 C 60.9000 %
450 24-06-2018 00:00:00 17.08583 C 64.6833 %
Sensor: Nr:Datum:Temp:Feuchte:
G-T/H 451 25-06-2018 00:00:00 17.72833 C 66.0250 %
452 26-06-2018 00:00:00 18.48917 C 62.1583 %
453 27-06-2018 00:00:00 19.815 C 57.9000 %
454 28-06-2018 00:00:00 20.73667 C 53.0667 %
455 29-06-2018 00:00:00 22.01 C 53.8250 %
456 30-06-2018 00:00:00 22.90917 C 48.2667 %
457 01-07-2018 00:00:00 21.50833 C 49.2500 %
458 02-07-2018 00:00:00 21.34083 C 43.1083 %
459 03-07-2018 00:00:00 20.70167 C 49.9250 %
460 04-07-2018 00:00:00 21.1075 C 60.3667 %
461 05-07-2018 00:00:00 21.2225 C 66.7750 %
462 06-07-2018 00:00:00 20.8225 C 63.6917 %
463 07-07-2018 00:00:00 20.45126 C 62.5294 %
464 08-07-2018 00:00:00 20.11833 C 59.9000 %
465 09-07-2018 00:00:00 20.74917 C 55.1417 %
466 10-07-2018 00:00:00 20.3825 C 58.3167 %
467 11-07-2018 00:00:00 18.89583 C 62.6083 %
468 12-07-2018 00:00:00 18.92167 C 65.2500 %
469 13-07-2018 00:00:00 20.39417 C 62.1167 %
470 14-07-2018 00:00:00 20.52583 C 63.2833 %
471 15-07-2018 00:00:00 20.67417 C 63.4333 %
472 16-07-2018 00:00:00 20.8475 C 63.2583 %
473 17-07-2018 00:00:00 20.97167 C 63.0667 %
474 18-07-2018 00:00:00 20.9325 C 59.6167 %
475 19-07-2018 00:00:00 21.11667 C 54.9500 %
Sensor: Nr:Datum:Temp:Feuchte:
G-T/H 476 20-07-2018 00:00:00 21.86917 C 52.9083 %
477 21-07-2018 00:00:00 21.57333 C 58.8500 %
478 22-07-2018 00:00:00 20.75417 C 62.4750 %
479 23-07-2018 00:00:00 22.1575 C 57.9833 %
480 24-07-2018 00:00:00 23.88 C 52.9250 %
481 25-07-2018 00:00:00 24.83333 C 49.4917 %
482 26-07-2018 00:00:00 25.99417 C 48.0750 %
483 27-07-2018 00:00:00 25.445 C 46.9000 %
484 28-07-2018 00:00:00 24.04917 C 55.1667 %
485 29-07-2018 00:00:00 22.61667 C 58.5167 %
486 30-07-2018 00:00:00 24.22583 C 54.8000 %
487 31-07-2018 00:00:00 25.41833 C 51.8250 %
488 01-08-2018 00:00:00 23.80667 C 61.0833 %
489 02-08-2018 00:00:00 23.36417 C 62.3583 %
490 03-08-2018 00:00:00 24.53167 C 58.5333 %
491 04-08-2018 00:00:00 25.9125 C 50.5583 %
492 05-08-2018 00:00:00 24.74417 C 53.5917 %
493 06-08-2018 00:00:00 24.53333 C 49.9583 %
494 07-08-2018 00:00:00 24.12667 C 54.2583 %
495 08-08-2018 00:00:00 24.27667 C 57.4917 %
496 09-08-2018 00:00:00 23.23333 C 60.5250 %
497 10-08-2018 00:00:00 21.49417 C 54.0000 %
498 11-08-2018 00:00:00 20.81667 C 56.0583 %
499 12-08-2018 00:00:00 20.13 C 56.1333 %
500 13-08-2018 00:00:00 20.07083 C 60.5667 %
Sensor: Nr:Datum:Temp:Feuchte:
G-T/H 501 14-08-2018 00:00:00 19.80333 C 63.5000 %
502 15-08-2018 00:00:00 19.82917 C 65.0667 %
503 16-08-2018 00:00:00 19.9875 C 64.3500 %
504 17-08-2018 00:00:00 20.46083 C 64.9583 %
505 18-08-2018 00:00:00 19.96167 C 62.2667 %
506 19-08-2018 00:00:00 19.83667 C 62.1667 %
507 20-08-2018 00:00:00 21.2525 C 62.2667 %
508 21-08-2018 00:00:00 21.17667 C 63.9333 %
509 22-08-2018 00:00:00 21.1725 C 64.1750 %
510 23-08-2018 00:00:00 21.47667 C 64.7000 %
511 24-08-2018 00:00:00 21.1275 C 62.0417 %
512 25-08-2018 00:00:00 19.5075 C 59.1667 %
513 26-08-2018 00:00:00 18.22417 C 55.7083 %
514 27-08-2018 00:00:00 18.48167 C 60.4500 %
515 28-08-2018 00:00:00 18.53833 C 61.2250 %
516 29-08-2018 00:00:00 18.56917 C 62.2417 %
517 30-08-2018 00:00:00 18.82333 C 63.4833 %
518 31-08-2018 00:00:00 18.3025 C 59.8750 %
519 01-09-2018 00:00:00 17.4825 C 59.8917 %
520 02-09-2018 00:00:00 16.9325 C 62.1583 %
521 03-09-2018 00:00:00 18.13333 C 66.0000 %
522 04-09-2018 00:00:00 19.61083 C 66.7083 %
523 05-09-2018 00:00:00 19.59583 C 67.1750 %
524 06-09-2018 00:00:00 19.38917 C 68.3667 %
525 07-09-2018 00:00:00 18.6775 C 67.7917 %
Sensor: Nr:Datum:Temp:Feuchte:
G-T/H 526 08-09-2018 00:00:00 17.10833 C 59.8333 %
527 09-09-2018 00:00:00 17.1975 C 64.7667 %
528 10-09-2018 00:00:00 18.47583 C 60.5250 %
529 11-09-2018 00:00:00 19.45417 C 58.4917 %
530 12-09-2018 00:00:00 18.84083 C 60.8833 %
531 13-09-2018 00:00:00 18.58083 C 66.2167 %
532 14-09-2018 00:00:00 18.04833 C 65.0000 %
533 15-09-2018 00:00:00 17.66667 C 59.8833 %
534 16-09-2018 00:00:00 16.83 C 61.8000 %
535 17-09-2018 00:00:00 17.8475 C 57.0583 %
536 18-09-2018 00:00:00 19.79417 C 56.2333 %
537 19-09-2018 00:00:00 21.03083 C 58.0583 %
538 20-09-2018 00:00:00 20.82 C 55.5500 %
539 21-09-2018 00:00:00 19.29417 C 59.4833 %
540 22-09-2018 00:00:00 17.24917 C 60.5250 %
541 23-09-2018 00:00:00 16.50167 C 65.7500 %
542 24-09-2018 00:00:00 15.14583 C 63.3167 %
543 25-09-2018 00:00:00 13.7275 C 62.7333 %
544 26-09-2018 00:00:00 13.02583 C 63.2917 %
545 27-09-2018 00:00:00 13.0625 C 65.7333 %
546 28-09-2018 00:00:00 13.53583 C 69.5083 %
547 29-09-2018 00:00:00 12.62 C 64.5750 %
548 30-09-2018 00:00:00 11.83417 C 63.4000 %
549 01-10-2018 00:00:00 12.43167 C 68.0167 %
550 02-10-2018 00:00:00 12.47917 C 67.0333 %
Sensor: Nr:Datum:Temp:Feuchte:
G-T/H 551 03-10-2018 00:00:00 13.125 C 70.8750 %
552 04-10-2018 00:00:00 12.85083 C 66.8417 %
553 05-10-2018 00:00:00 13.175 C 68.1250 %
554 06-10-2018 00:00:00 12.79833 C 73.9167 %
555 07-10-2018 00:00:00 14.22167 C 74.0833 %
556 08-10-2018 00:00:00 13.52083 C 69.3917 %
557 09-10-2018 00:00:00 13.39083 C 72.8583 %
558 10-10-2018 00:00:00 13.75333 C 75.3000 %
559 11-10-2018 00:00:00 13.985 C 75.0167 %
560 12-10-2018 00:00:00 14.54333 C 75.8417 %
561 13-10-2018 00:00:00 15.69 C 72.6083 %
562 14-10-2018 00:00:00 15.11667 C 72.1917 %
563 15-10-2018 00:00:00 14.6725 C 73.1583 %
564 16-10-2018 00:00:00 14.08333 C 72.8917 %
565 17-10-2018 00:00:00 13.86667 C 73.4083 %
566 18-10-2018 00:00:00 14.26083 C 74.7500 %
567 19-10-2018 00:00:00 14.28333 C 73.2417 %
568 20-10-2018 00:00:00 14.01833 C 72.8250 %
569 21-10-2018 00:00:00 12.52583 C 67.5917 %
570 22-10-2018 00:00:00 11.7575 C 67.8750 %
571 23-10-2018 00:00:00 11.71417 C 69.2333 %
572 24-10-2018 00:00:00 13.1175 C 73.3417 %
573 25-10-2018 00:00:00 13.88083 C 73.4083 %
574 26-10-2018 00:00:00 13.5375 C 68.0250 %
575 27-10-2018 00:00:00 12.19667 C 65.8417 %
Sensor: Nr:Datum:Temp:Feuchte:
G-T/H 576 28-10-2018 00:00:00 10.9176 C 62.4880 %
577 29-10-2018 00:00:00 10.95583 C 65.6250 %
578 30-10-2018 00:00:00 10.86333 C 67.5167 %
579 31-10-2018 00:00:00 10.8775 C 68.4750 %
580 01-11-2018 00:00:00 10.72083 C 69.2750 %
581 02-11-2018 00:00:00 11.285 C 72.4667 %
582 03-11-2018 00:00:00 10.44 C 67.0750 %
583 04-11-2018 00:00:00 10.265 C 68.6167 %
584 05-11-2018 00:00:00 11.60167 C 72.5750 %
585 06-11-2018 00:00:00 11.5475 C 72.0167 %
586 07-11-2018 00:00:00 11.24083 C 72.4083 %
587 08-11-2018 00:00:00 11.87833 C 74.0333 %
588 09-11-2018 00:00:00 11.62333 C 73.2750 %
589 10-11-2018 00:00:00 12.22833 C 74.7000 %
590 11-11-2018 00:00:00 12.73917 C 75.7833 %
591 12-11-2018 00:00:00 13.255 C 75.6083 %
592 13-11-2018 00:00:00 13.2975 C 75.3417 %
593 14-11-2018 00:00:00 11.54667 C 70.8583 %
594 15-11-2018 00:00:00 11.19417 C 71.8333 %
595 16-11-2018 00:00:00 10.76833 C 68.8833 %
596 17-11-2018 00:00:00 9.25167 C 68.0000 %
597 18-11-2018 00:00:00 8.3775 C 68.4167 %
598 19-11-2018 00:00:00 8.15 C 69.1333 %
599 20-11-2018 00:00:00 8.56667 C 68.8833 %
600 21-11-2018 00:00:00 8.45333 C 69.6833 %
Sensor: Nr:Datum:Temp:Feuchte:
G-T/H 601 22-11-2018 00:00:00 8.65333 C 70.9083 %
602 23-11-2018 00:00:00 7.69667 C 69.4917 %
603 24-11-2018 00:00:00 8.0325 C 72.4750 %
604 25-11-2018 00:00:00 9.05667 C 73.9333 %
605 26-11-2018 00:00:00 9.6625 C 74.3250 %
606 27-11-2018 00:00:00 9.61333 C 72.8000 %
607 28-11-2018 00:00:00 8.91917 C 71.9583 %
608 29-11-2018 00:00:00 9.26083 C 73.8000 %
609 30-11-2018 00:00:00 9.63 C 74.7833 %
610 01-12-2018 00:00:00 9.92417 C 74.6250 %
611 02-12-2018 00:00:00 10.7275 C 75.6167 %
612 03-12-2018 00:00:00 11.87333 C 76.5417 %
613 04-12-2018 00:00:00 11.3275 C 72.0250 %
614 05-12-2018 00:00:00 9.61933 C 69.0504 %
615 06-12-2018 00:00:00 10.40583 C 72.9583 %
616 07-12-2018 00:00:00 11.82917 C 74.0583 %
617 08-12-2018 00:00:00 11.04667 C 70.6667 %
618 09-12-2018 00:00:00 10.81167 C 72.8000 %
619 10-12-2018 00:00:00 10.01083 C 71.3083 %
620 11-12-2018 00:00:00 9.19083 C 71.8583 %
621 12-12-2018 00:00:00 8.70667 C 72.1583 %
622 13-12-2018 00:00:00 8.07083 C 70.1167 %
623 14-12-2018 00:00:00 7.78 C 68.6583 %
624 15-12-2018 00:00:00 7.575 C 68.1083 %
625 16-12-2018 00:00:00 7.33667 C 67.4333 %
Sensor: Nr:Datum:Temp:Feuchte:
G-T/H 626 17-12-2018 00:00:00 7.74583 C 71.2333 %
627 18-12-2018 00:00:00 8.3475 C 72.4667 %
628 19-12-2018 00:00:00 8.60083 C 72.9417 %
629 20-12-2018 00:00:00 9.3175 C 74.0000 %
630 21-12-2018 00:00:00 10.0375 C 74.8333 %
631 22-12-2018 00:00:00 10.99417 C 74.3000 %
632 23-12-2018 00:00:00 10.525 C 74.6917 %
633 24-12-2018 00:00:00 10.26583 C 72.2917 %
634 25-12-2018 00:00:00 8.6825 C 71.1167 %
635 26-12-2018 00:00:00 7.58083 C 70.1333 %
636 27-12-2018 00:00:00 6.98167 C 70.2333 %
637 28-12-2018 00:00:00 6.8575 C 71.5833 %
638 29-12-2018 00:00:00 7.085 C 72.4583 %
639 30-12-2018 00:00:00 8.24 C 74.4417 %
640 31-12-2018 00:00:00 9.18833 C 75.6083 %
641 01-01-2019 00:00:00 9.65583 C 75.8167 %
642 02-01-2019 00:00:00 8.91333 C 73.4000 %
643 03-01-2019 00:00:00 7.65417 C 72.7000 %
644 04-01-2019 00:00:00 7.72667 C 73.7750 %
645 05-01-2019 00:00:00 8.26833 C 74.6083 %
646 06-01-2019 00:00:00 8.8 C 75.9250 %
647 07-01-2019 00:00:00 8.94 C 75.0167 %
648 08-01-2019 00:00:00 9.01833 C 74.5417 %
649 09-01-2019 00:00:00 8.46417 C 73.0417 %
650 10-01-2019 00:00:00 7.90083 C 71.3750 %
Sensor: Nr:Datum:Temp:Feuchte:
G-T/H 651 11-01-2019 00:00:00 7.57167 C 72.1167 %
652 12-01-2019 00:00:00 8.24417 C 74.2500 %
653 13-01-2019 00:00:00 8.91667 C 75.6333 %
654 14-01-2019 00:00:00 9.11083 C 74.7417 %
655 15-01-2019 00:00:00 8.33333 C 74.3833 %
656 16-01-2019 00:00:00 8.5125 C 74.7083 %
657 17-01-2019 00:00:00 8.4975 C 74.5500 %
658 18-01-2019 00:00:00 7.79333 C 72.6583 %
659 19-01-2019 00:00:00 6.99833 C 69.2000 %
660 20-01-2019 00:00:00 6.61083 C 64.8583 %
661 21-01-2019 00:00:00 6.18667 C 61.1750 %
662 22-01-2019 00:00:00 6.04833 C 60.2083 %
663 23-01-2019 00:00:00 6.2575 C 63.4917 %
664 24-01-2019 00:00:00 6.30833 C 65.6583 %
665 25-01-2019 00:00:00 6.2425 C 67.2833 %
666 26-01-2019 00:00:00 6.51833 C 71.7083 %
667 27-01-2019 00:00:00 7.75333 C 73.9667 %
668 28-01-2019 00:00:00 7.77417 C 74.2417 %
669 29-01-2019 00:00:00 7.46167 C 73.9917 %
670 30-01-2019 00:00:00 6.65667 C 69.5667 %
671 31-01-2019 00:00:00 6.54333 C 72.1667 %
672 01-02-2019 00:00:00 6.475 C 73.4167 %
673 02-02-2019 00:00:00 6.70083 C 74.6612 %
674 03-02-2019 00:00:00 6.98667 C 74.3417 %
675 04-02-2019 00:00:00 6.68333 C 73.8083 %
Sensor: Nr:Datum:Temp:Feuchte:
G-T/H 676 05-02-2019 00:00:00 7.12 C 74.5083 %
677 06-02-2019 00:00:00 6.9875 C 73.4333 %
678 07-02-2019 00:00:00 7.0025 C 74.8750 %
679 08-02-2019 00:00:00 7.93833 C 76.1083 %
680 09-02-2019 00:00:00 8.85917 C 76.1583 %
681 10-02-2019 00:00:00 9.2225 C 75.9667 %
682 11-02-2019 00:00:00 8.8125 C 75.1083 %
683 12-02-2019 00:00:00 8.09167 C 74.2167 %
684 13-02-2019 00:00:00 7.47583 C 73.5000 %
685 14-02-2019 00:00:00 6.95583 C 72.5083 %
686 15-02-2019 00:00:00 6.6825 C 71.6250 %
687 16-02-2019 00:00:00 6.53917 C 73.3083 %
688 17-02-2019 00:00:00 6.63667 C 74.1417 %
689 18-02-2019 00:00:00 6.65583 C 74.3000 %
690 19-02-2019 00:00:00 7.19417 C 75.8083 %
691 20-02-2019 00:00:00 7.495 C 75.5500 %
692 21-02-2019 00:00:00 7.76167 C 75.7333 %
693 22-02-2019 00:00:00 9.21417 C 77.2250 %
694 23-02-2019 00:00:00 9.20583 C 74.8917 %
695 24-02-2019 00:00:00 8.01917 C 72.1333 %
696 25-02-2019 00:00:00 7.5975 C 71.6250 %
697 26-02-2019 00:00:00 7.74083 C 71.5500 %
698 27-02-2019 00:00:00 6.63667 C 68.6917 %
699 28-02-2019 00:00:00 8.11917 C 73.1500 %
700 01-03-2019 00:00:00 9.37083 C 74.7583 %
Sensor: Nr:Datum:Temp:Feuchte:
G-T/H 701 02-03-2019 00:00:00 9.69333 C 72.8750 %
702 03-03-2019 00:00:00 10.36917 C 73.5083 %
703 04-03-2019 00:00:00 10.60917 C 73.1083 %
704 05-03-2019 00:00:00 9.71 C 71.6083 %
705 06-03-2019 00:00:00 9.71 C 73.4333 %
706 07-03-2019 00:00:00 10.48417 C 73.6500 %
707 08-03-2019 00:00:00 10.0575 C 72.7250 %
708 09-03-2019 00:00:00 10.17167 C 73.4333 %
709 10-03-2019 00:00:00 10.60917 C 71.4667 %
710 11-03-2019 00:00:00 9.44833 C 67.3667 %
711 12-03-2019 00:00:00 8.92417 C 70.4667 %
712 13-03-2019 00:00:00 9.345 C 71.3250 %
713 14-03-2019 00:00:00 9.13333 C 72.3750 %
714 15-03-2019 00:00:00 10.055 C 74.0583 %
715 16-03-2019 00:00:00 10.57417 C 72.1333 %
716 17-03-2019 00:00:00 9.70583 C 61.2083 %
717 18-03-2019 00:00:00 6.8675 C 62.4667 %
718 19-03-2019 00:00:00 6.02333 C 59.7583 %
719 20-03-2019 00:00:00 7.52333 C 64.5167 %
720 21-03-2019 00:00:00 9.29167 C 60.4917 %
721 22-03-2019 00:00:00 10.14833 C 61.3250 %
722 23-03-2019 00:00:00 10.15917 C 64.7250 %
723 24-03-2019 00:00:00 9.54833 C 67.2167 %
724 25-03-2019 00:00:00 9.15583 C 67.9000 %
725 26-03-2019 00:00:00 9.0525 C 69.7250 %
Sensor: Nr:Datum:Temp:Feuchte:
G-T/H 726 27-03-2019 00:00:00 9.47917 C 69.9333 %
727 28-03-2019 00:00:00 9.49583 C 69.9417 %
728 29-03-2019 00:00:00 10.2825 C 66.2583 %
729 30-03-2019 00:00:00 9.79667 C 60.6083 %
730 31-03-2019 00:00:00 11.2313 C 64.9130 %
731 01-04-2019 00:00:00 11.50333 C 60.3833 %
732 02-04-2019 00:00:00 11.2875 C 63.6333 %
733 03-04-2019 00:00:00 11.49833 C 67.0000 %
734 04-04-2019 00:00:00 10.56333 C 67.8833 %
735 05-04-2019 00:00:00 9.87333 C 68.5417 %
736 06-04-2019 00:00:00 10.76333 C 69.0417 %
737 07-04-2019 00:00:00 11.4925 C 68.0667 %
738 08-04-2019 00:00:00 12.30917 C 70.6833 %
739 09-04-2019 00:00:00 12.2875 C 74.7333 %
740 10-04-2019 00:00:00 12.35917 C 56.9917 %
741 11-04-2019 00:00:00 10.73083 C 48.4917 %
742 12-04-2019 00:00:00 9.57417 C 46.6333 %
743 13-04-2019 00:00:00 9.48583 C 55.2583 %
744 14-04-2019 00:00:00 9.175 C 58.5167 %
745 15-04-2019 00:00:00 10.07667 C 62.0833 %
746 16-04-2019 00:00:00 11.07083 C 62.2083 %
747 17-04-2019 00:00:00 12.33417 C 65.8333 %
748 18-04-2019 00:00:00 13.09417 C 62.0833 %
749 19-04-2019 00:00:00 14.9125 C 51.5500 %
750 20-04-2019 00:00:00 15.6775 C 48.0417 %
Sensor: Nr:Datum:Temp:Feuchte:
G-T/H 751 21-04-2019 00:00:00 16.29 C 47.3167 %
752 22-04-2019 00:00:00 15.22333 C 52.2417 %
753 23-04-2019 00:00:00 15.61417 C 53.2333 %
754 24-04-2019 00:00:00 15.37833 C 59.4167 %
755 25-04-2019 00:00:00 14.5575 C 61.5833 %
756 26-04-2019 00:00:00 14.28667 C 64.1250 %
757 27-04-2019 00:00:00 13.445 C 64.1833 %
758 28-04-2019 00:00:00 12.45 C 64.1833 %
759 29-04-2019 00:00:00 11.95083 C 63.4083 %
760 30-04-2019 00:00:00 13.89833 C 57.8083 %
761 01-05-2019 00:00:00 14.135 C 60.2833 %
762 02-05-2019 00:00:00 13.82333 C 62.1750 %
763 03-05-2019 00:00:00 13.86417 C 59.4750 %
764 04-05-2019 00:00:00 12.72083 C 59.0083 %
765 05-05-2019 00:00:00 11.31667 C 59.7917 %
766 06-05-2019 00:00:00 11.38833 C 61.2833 %
767 07-05-2019 00:00:00 11.88083 C 62.6250 %
768 08-05-2019 00:00:00 11.97 C 62.9333 %
769 09-05-2019 00:00:00 12.35167 C 66.7333 %
770 10-05-2019 00:00:00 12.92101 C 67.6218 %
771 11-05-2019 00:00:00 13.15833 C 68.0833 %
772 12-05-2019 00:00:00 12.12833 C 64.0833 %
773 13-05-2019 00:00:00 12.045 C 60.0000 %
774 14-05-2019 00:00:00 12.31083 C 59.7417 %
775 15-05-2019 00:00:00 12.7725 C 52.9833 %
Sensor: Nr:Datum:Temp:Feuchte:
G-T/H 776 16-05-2019 00:00:00 13.015 C 56.6333 %
777 17-05-2019 00:00:00 13.21917 C 63.1000 %
778 18-05-2019 00:00:00 14.04667 C 66.4250 %
779 19-05-2019 00:00:00 14.825 C 68.0750 %
780 20-05-2019 00:00:00 14.84583 C 68.8000 %
781 21-05-2019 00:00:00 14.15167 C 70.0167 %
782 22-05-2019 00:00:00 13.71167 C 69.7583 %
783 23-05-2019 00:00:00 15.29917 C 61.3750 %
784 24-05-2019 00:00:00 17.54 C 55.6333 %
785 25-05-2019 00:00:00 17.29083 C 56.6250 %
786 26-05-2019 00:00:00 16.44583 C 60.8167 %
787 27-05-2019 00:00:00 16.3925 C 64.3917 %
788 28-05-2019 00:00:00 15.71583 C 66.5333 %
789 29-05-2019 00:00:00 16.0475 C 54.4250 %
790 30-05-2019 00:00:00 15.75417 C 61.4167 %
791 31-05-2019 00:00:00 17.74167 C 65.2667 %
792 01-06-2019 00:00:00 18.025 C 65.0750 %
793 02-06-2019 00:00:00 18.60667 C 66.0917 %
794 03-06-2019 00:00:00 19.92333 C 65.8667 %
795 04-06-2019 00:00:00 19.69667 C 66.1500 %
796 05-06-2019 00:00:00 20.025 C 66.6917 %
797 06-06-2019 00:00:00 19.2775 C 64.1917 %
798 07-06-2019 00:00:00 17.86583 C 60.1250 %
799 08-06-2019 00:00:00 17.565 C 60.2333 %
800 09-06-2019 00:00:00 16.99667 C 61.5667 %
Sensor: Nr:Datum:Temp:Feuchte:
G-T/H 801 10-06-2019 00:00:00 17.96333 C 64.8583 %
802 11-06-2019 00:00:00 18.18333 C 66.3917 %
803 12-06-2019 00:00:00 17.70333 C 67.3917 %
804 13-06-2019 00:00:00 17.89167 C 58.1667 %
805 14-06-2019 00:00:00 19.59083 C 60.6083 %
806 15-06-2019 00:00:00 19.6625 C 64.9917 %
807 16-06-2019 00:00:00 19.56917 C 62.4417 %
808 17-06-2019 00:00:00 19.01167 C 62.8417 %
809 18-06-2019 00:00:00 21.23667 C 58.9250 %
810 19-06-2019 00:00:00 21.53167 C 61.1000 %
811 20-06-2019 00:00:00 20.7375 C 63.5667 %
812 21-06-2019 00:00:00 20.53083 C 52.5000 %
813 22-06-2019 00:00:00 20.16917 C 54.8083 %
814 23-06-2019 00:00:00 21.31917 C 57.1667 %
815 24-06-2019 00:00:00 23.94167 C 55.3000 %
816 25-06-2019 00:00:00 23.93083 C 58.5083 %
817 26-06-2019 00:00:00 24.37417 C 62.9417 %
818 27-06-2019 00:00:00 23.60667 C 60.8333 %
819 28-06-2019 00:00:00 22.21417 C 58.6667 %
820 29-06-2019 00:00:00 24.105 C 45.4667 %
821 30-06-2019 00:00:00 23.46833 C 52.6667 %
822 01-07-2019 00:00:00 23.14417 C 56.9333 %
823 02-07-2019 00:00:00 21.5975 C 49.7667 %
824 03-07-2019 00:00:00 20.46667 C 46.5000 %
825 04-07-2019 00:00:00 20.24 C 44.2750 %
Sensor: Nr:Datum:Temp:Feuchte:
G-T/H 826 05-07-2019 00:00:00 20.99583 C 47.4667 %
827 06-07-2019 00:00:00 21.055 C 53.0250 %
828 07-07-2019 00:00:00 20.39667 C 54.9083 %
829 08-07-2019 00:00:00 18.37167 C 51.1250 %
830 09-07-2019 00:00:00 18.10583 C 49.1417 %
831 10-07-2019 00:00:00 18.91917 C 42.0333 %
832 11-07-2019 00:00:00 18.91167 C 59.7083 %
833 12-07-2019 00:00:00 18.3025 C 73.7917 %
834 13-07-2019 00:00:00 18.47333 C 67.7417 %
835 14-07-2019 00:00:00 18.46917 C 65.0917 %
836 15-07-2019 00:00:00 18.2725 C 59.6250 %
837 16-07-2019 00:00:00 17.95917 C 58.3667 %
838 17-07-2019 00:00:00 18.23667 C 61.2917 %
839 18-07-2019 00:00:00 19.79417 C 58.3083 %
840 19-07-2019 00:00:00 19.79417 C 61.5917 %
841 20-07-2019 00:00:00 19.78583 C 63.8500 %
842 21-07-2019 00:00:00 20.41333 C 63.8583 %
843 22-07-2019 00:00:00 22.33167 C 54.5167 %
844 23-07-2019 00:00:00 22.5225 C 56.8667 %
845 24-07-2019 00:00:00 23.21833 C 58.3417 %
846 25-07-2019 00:00:00 24.345 C 57.0083 %
847 26-07-2019 00:00:00 24.17667 C 57.8500 %
848 27-07-2019 00:00:00 23.54 C 61.3083 %
849 28-07-2019 00:00:00 22.08333 C 64.8167 %
850 29-07-2019 00:00:00 21.58833 C 59.7917 %
Sensor: Nr:Datum:Temp:Feuchte:
G-T/H 851 30-07-2019 00:00:00 21.785 C 58.7750 %
852 31-07-2019 00:00:00 22.4025 C 50.4333 %
853 01-08-2019 00:00:00 21.77083 C 49.7000 %
854 02-08-2019 00:00:00 21.34583 C 55.7750 %
855 03-08-2019 00:00:00 20.90667 C 59.1167 %
856 04-08-2019 00:00:00 20.4525 C 59.4750 %
857 05-08-2019 00:00:00 22.07 C 57.0167 %
858 06-08-2019 00:00:00 21.48083 C 59.7417 %
859 07-08-2019 00:00:00 21.08 C 63.1500 %
860 08-08-2019 00:00:00 20.60333 C 62.6167 %
861 09-08-2019 00:00:00 20.50167 C 64.6000 %
862 10-08-2019 00:00:00 20.38917 C 65.0917 %
863 11-08-2019 00:00:00 19.8725 C 64.3750 %
864 12-08-2019 00:00:00 19.0475 C 65.6000 %
865 13-08-2019 00:00:00 18.645 C 58.8417 %
866 14-08-2019 00:00:00 18.54583 C 57.0833 %
867 15-08-2019 00:00:00 18.91583 C 62.6250 %
868 16-08-2019 00:00:00 18.59917 C 65.5583 %
869 17-08-2019 00:00:00 18.78167 C 67.1583 %
870 18-08-2019 00:00:00 19.07417 C 68.7167 %
871 19-08-2019 00:00:00 19.70167 C 61.8833 %
872 20-08-2019 00:00:00 18.7775 C 58.6500 %
873 21-08-2019 00:00:00 18.37 C 62.6500 %
874 22-08-2019 00:00:00 18.7725 C 58.7167 %
875 23-08-2019 00:00:00 19.34333 C 56.0250 %
Sensor: Nr:Datum:Temp:Feuchte:
G-T/H 876 24-08-2019 00:00:00 19.1825 C 58.5917 %
877 25-08-2019 00:00:00 19.53 C 63.3500 %
878 26-08-2019 00:00:00 21.84417 C 64.5833 %
879 27-08-2019 00:00:00 21.31417 C 66.1667 %
880 28-08-2019 00:00:00 21.07 C 66.6583 %
881 29-08-2019 00:00:00 21.03417 C 66.8417 %
882 30-08-2019 00:00:00 20.6775 C 66.8917 %
883 31-08-2019 00:00:00 20.2775 C 66.5917 %
884 01-09-2019 00:00:00 20.59167 C 65.4167 %
885 02-09-2019 00:00:00 18.59583 C 51.3417 %
886 03-09-2019 00:00:00 16.5475 C 53.5583 %
887 04-09-2019 00:00:00 18.68667 C 56.9667 %
888 05-09-2019 00:00:00 18.34667 C 60.0000 %
889 06-09-2019 00:00:00 17.44333 C 56.1750 %
890 07-09-2019 00:00:00 17.36583 C 60.4417 %
891 08-09-2019 00:00:00 16.54309 C 65.9350 %
892 09-09-2019 00:00:00 16.06067 C 66.7333 %
893 10-09-2019 00:00:00 15.23333 C 63.6597 %
894 11-09-2019 00:00:00 15.74097 C 61.0833 %
895 12-09-2019 00:00:00 17.93194 C 67.6319 %
896 13-09-2019 00:00:00 18.68472 C 70.9653 %
897 14-09-2019 00:00:00 18.01181 C 65.5903 %
898 15-09-2019 00:00:00 17.60347 C 61.9722 %
899 16-09-2019 00:00:00 17.78264 C 60.7361 %
900 17-09-2019 00:00:00 17.67431 C 62.7083 %
Sensor: Nr:Datum:Temp:Feuchte:
G-T/H 901 18-09-2019 00:00:00 15.39444 C 57.2778 %
902 19-09-2019 00:00:00 14.12361 C 57.3125 %
903 20-09-2019 00:00:00 13.22639 C 59.3056 %
904 21-09-2019 00:00:00 15.10833 C 52.5278 %
905 22-09-2019 00:00:00 15.13194 C 59.2083 %
906 23-09-2019 00:00:00 16.27153 C 64.4028 %
907 24-09-2019 00:00:00 16.11528 C 66.2778 %
908 25-09-2019 00:00:00 16.20556 C 67.8681 %
909 26-09-2019 00:00:00 16.33542 C 69.4097 %
910 27-09-2019 00:00:00 16.76458 C 69.3611 %
911 28-09-2019 00:00:00 16.47083 C 68.9792 %
912 29-09-2019 00:00:00 16.41458 C 69.6528 %
913 30-09-2019 00:00:00 16.64236 C 66.7917 %
914 01-10-2019 00:00:00 16.54167 C 68.3542 %
915 02-10-2019 00:00:00 16.15694 C 67.3056 %
916 03-10-2019 00:00:00 14.67222 C 66.7361 %
917 04-10-2019 00:00:00 14.15556 C 70.1319 %
918 05-10-2019 00:00:00 14.31875 C 71.1667 %
919 06-10-2019 00:00:00 13.69306 C 70.7847 %
920 07-10-2019 00:00:00 13.58056 C 72.7153 %
921 08-10-2019 00:00:00 14.14097 C 74.1597 %
922 09-10-2019 00:00:00 14.23472 C 74.0486 %
923 10-10-2019 00:00:00 14.00139 C 74.0278 %
924 11-10-2019 00:00:00 13.98819 C 74.3333 %
925 12-10-2019 00:00:00 14.71181 C 71.7639 %
Sensor: Nr:Datum:Temp:Feuchte:
G-T/H 926 13-10-2019 00:00:00 15.13472 C 74.9097 %
927 14-10-2019 00:00:00 16.34722 C 74.3958 %
928 15-10-2019 00:00:00 15.98125 C 73.6597 %
929 16-10-2019 00:00:00 15.42708 C 73.2986 %
930 17-10-2019 00:00:00 15.28056 C 74.7292 %
931 18-10-2019 00:00:00 15.18681 C 74.6042 %
932 19-10-2019 00:00:00 14.72222 C 74.1944 %
933 20-10-2019 00:00:00 14.40278 C 81.1597 %
934 21-10-2019 00:00:00 14.60625 C 80.9028 %
935 22-10-2019 00:00:00 14.62153 C 77.5000 %
936 23-10-2019 00:00:00 14.00764 C 76.3542 %
937 24-10-2019 00:00:00 14.52986 C 78.0139 %
938 25-10-2019 00:00:00 15.10694 C 74.8681 %
939 26-10-2019 00:00:00 14.99028 C 74.2153 %
940 27-10-2019 00:00:00 14.43933 C 74.9333 %
941 28-10-2019 00:00:00 12.81389 C 71.1806 %
942 29-10-2019 00:00:00 12.35556 C 71.6389 %
943 30-10-2019 00:00:00 10.98611 C 65.8194 %
944 31-10-2019 00:00:00 9.49097 C 64.1736 %
945 01-11-2019 00:00:00 9.67014 C 69.2569 %
946 02-11-2019 00:00:00 12.01181 C 74.2222 %
947 03-11-2019 00:00:00 12.91806 C 75.4861 %
948 04-11-2019 00:00:00 12.97569 C 75.6250 %
949 05-11-2019 00:00:00 12.58194 C 75.9444 %
950 06-11-2019 00:00:00 12.33194 C 75.6528 %
Sensor: Nr:Datum:Temp:Feuchte:
G-T/H 951 07-11-2019 00:00:00 12.18403 C 75.3403 %
952 08-11-2019 00:00:00 11.13611 C 70.1181 %
953 09-11-2019 00:00:00 11.02014 C 69.0972 %
954 10-11-2019 00:00:00 9.95556 C 68.3056 %
955 11-11-2019 00:00:00 9.96458 C 71.2708 %
956 12-11-2019 00:00:00 10.11458 C 72.0972 %
957 13-11-2019 00:00:00 10.0125 C 72.4097 %
958 14-11-2019 00:00:00 9.73403 C 68.3958 %
959 15-11-2019 00:00:00 9.68819 C 69.4028 %
960 16-11-2019 00:00:00 9.6125 C 68.7083 %
961 17-11-2019 00:00:00 9.03819 C 69.9306 %
962 18-11-2019 00:00:00 9.47361 C 72.2500 %
963 19-11-2019 00:00:00 9.40903 C 72.0833 %
964 20-11-2019 00:00:00 8.93333 C 71.1181 %
965 21-11-2019 00:00:00 8.40559 C 70.8182 %
966 22-11-2019 00:00:00 8.70556 C 72.6736 %
967 23-11-2019 00:00:00 9.32569 C 73.0972 %
968 24-11-2019 00:00:00 9.08333 C 72.0764 %
969 25-11-2019 00:00:00 9.04375 C 73.5069 %
970 26-11-2019 00:00:00 9.85139 C 74.9375 %
971 27-11-2019 00:00:00 10.87847 C 75.9236 %
972 28-11-2019 00:00:00 11.51597 C 75.5069 %
973 29-11-2019 00:00:00 11.25208 C 72.3542 %
974 30-11-2019 00:00:00 9.66736 C 68.9097 %
975 01-12-2019 00:00:00 8.81806 C 70.1806 %
Sensor: Nr:Datum:Temp:Feuchte:
G-T/H 976 02-12-2019 00:00:00 8.35278 C 70.5417 %
977 03-12-2019 00:00:00 8.74514 C 73.3472 %
978 04-12-2019 00:00:00 8.79375 C 71.8403 %
979 05-12-2019 00:00:00 7.92014 C 69.1458 %
980 06-12-2019 00:00:00 7.57292 C 70.7014 %
981 07-12-2019 00:00:00 8.97014 C 74.4514 %
982 08-12-2019 00:00:00 10.25694 C 75.1667 %
983 09-12-2019 00:00:00 10.48403 C 74.1111 %
984 10-12-2019 00:00:00 9.34028 C 71.5903 %
985 11-12-2019 00:00:00 8.75694 C 73.1250 %
986 12-12-2019 00:00:00 8.81042 C 73.2500 %
987 13-12-2019 00:00:00 8.51944 C 72.1458 %
988 14-12-2019 00:00:00 8.92153 C 73.0764 %
989 15-12-2019 00:00:00 9.56736 C 74.6667 %
990 16-12-2019 00:00:00 9.90486 C 75.1389 %
991 17-12-2019 00:00:00 10.43333 C 75.4583 %
992 18-12-2019 00:00:00 10.925 C 75.4861 %
993 19-12-2019 00:00:00 9.76667 C 73.6667 %
994 20-12-2019 00:00:00 9.69375 C 75.0208 %
995 21-12-2019 00:00:00 10.06458 C 74.5833 %
996 22-12-2019 00:00:00 10.1375 C 75.1528 %
997 23-12-2019 00:00:00 10.30417 C 75.3681 %
998 24-12-2019 00:00:00 10.12639 C 74.9375 %
999 25-12-2019 00:00:00 10.24444 C 75.9653 %
1000 26-12-2019 00:00:00 9.92708 C 75.2569 %
Sensor: Nr:Datum:Temp:Feuchte:
G-T/H 1001 27-12-2019 00:00:00 9.69444 C 75.5833 %
1002 28-12-2019 00:00:00 8.37639 C 70.3194 %
1003 29-12-2019 00:00:00 7.21528 C 69.6875 %
1004 30-12-2019 00:00:00 7.16944 C 69.0486 %
1005 31-12-2019 00:00:00 6.93194 C 69.9722 %
1006 01-01-2020 00:00:00 7.23125 C 70.8403 %
1007 02-01-2020 00:00:00 7.28958 C 70.5417 %
1008 03-01-2020 00:00:00 8.41389 C 73.4792 %
1009 04-01-2020 00:00:00 9.12431 C 73.5833 %
1010 05-01-2020 00:00:00 9.42917 C 73.5694 %
1011 06-01-2020 00:00:00 9.33958 C 72.1181 %
1012 07-01-2020 00:00:00 8.74583 C 72.1111 %
1013 08-01-2020 00:00:00 9.18611 C 74.0347 %
1014 09-01-2020 00:00:00 10.3875 C 76.5556 %
1015 10-01-2020 00:00:00 11.02153 C 75.1389 %
1016 11-01-2020 00:00:00 10.04097 C 73.2014 %
1017 12-01-2020 00:00:00 9.14861 C 72.8958 %
1018 13-01-2020 00:00:00 9.30833 C 74.5139 %
1019 14-01-2020 00:00:00 9.78958 C 75.6597 %
1020 15-01-2020 00:00:00 10.59028 C 75.5972 %
1021 16-01-2020 00:00:00 10.82222 C 75.8264 %
1022 17-01-2020 00:00:00 9.87847 C 74.9583 %
1023 18-01-2020 00:00:00 9.38125 C 74.1597 %
1024 19-01-2020 00:00:00 8.86667 C 74.2569 %
1025 20-01-2020 00:00:00 8.75 C 73.1111 %
Sensor: Nr:Datum:Temp:Feuchte:
G-T/H 1026 21-01-2020 00:00:00 7.77014 C 69.7847 %
1027 22-01-2020 00:00:00 7.17083 C 69.5903 %
1028 23-01-2020 00:00:00 7.63472 C 70.8611 %
1029 24-01-2020 00:00:00 7.71319 C 70.9097 %
1030 25-01-2020 00:00:00 7.96806 C 71.5139 %
1031 26-01-2020 00:00:00 7.98611 C 72.6597 %
1032 27-01-2020 00:00:00 8.21875 C 74.7500 %
1033 28-01-2020 00:00:00 8.85833 C 75.1458 %
1034 29-01-2020 00:00:00 8.44306 C 74.0000 %
1035 30-01-2020 00:00:00 8.61389 C 74.8750 %
1036 31-01-2020 00:00:00 10.32431 C 76.3958 %
1037 01-02-2020 00:00:00 11.40556 C 76.3681 %
1038 02-02-2020 00:00:00 11.15903 C 73.6736 %
1039 03-02-2020 00:00:00 11.4875 C 75.0000 %
1040 04-02-2020 00:00:00 10.54722 C 71.2847 %
1041 05-02-2020 00:00:00 9.47153 C 71.9236 %
1042 06-02-2020 00:00:00 8.34306 C 70.5208 %
1043 07-02-2020 00:00:00 7.79097 C 69.9167 %
1044 08-02-2020 00:00:00 7.33681 C 70.6528 %
1045 09-02-2020 00:00:00 8.3 C 73.5694 %
1046 10-02-2020 00:00:00 9.82708 C 73.9167 %
1047 11-02-2020 00:00:00 9.18194 C 72.2431 %
1048 12-02-2020 00:00:00 8.72083 C 72.8750 %
1049 13-02-2020 00:00:00 8.20208 C 72.5208 %
1050 14-02-2020 00:00:00 8.84653 C 74.7500 %
Sensor: Nr:Datum:Temp:Feuchte:
G-T/H 1051 15-02-2020 00:00:00 8.93958 C 73.5903 %
1052 16-02-2020 00:00:00 11.3125 C 68.1111 %
1053 17-02-2020 00:00:00 11.77708 C 69.2778 %
1054 18-02-2020 00:00:00 10.43056 C 67.4028 %
1055 19-02-2020 00:00:00 9.94514 C 69.4583 %
1056 20-02-2020 00:00:00 9.73472 C 71.6875 %
1057 21-02-2020 00:00:00 9.56875 C 71.4931 %
1058 22-02-2020 00:00:00 9.25625 C 72.0625 %
1059 23-02-2020 00:00:00 10.38403 C 73.7708 %
1060 24-02-2020 00:00:00 10.40903 C 71.9792 %
1061 25-02-2020 00:00:00 10.88819 C 73.0278 %
1062 26-02-2020 00:00:00 10.02917 C 68.9306 %
1063 27-02-2020 00:00:00 9.17986 C 71.0208 %
1064 28-02-2020 00:00:00 8.31042 C 73.7708 %
1065 29-02-2020 00:00:00 9.28125 C 75.1597 %
1066 01-03-2020 00:00:00 9.80486 C 74.3403 %
1067 02-03-2020 00:00:00 9.67847 C 73.5833 %
1068 03-03-2020 00:00:00 9.53681 C 73.3194 %
1069 04-03-2020 00:00:00 8.95833 C 73.5139 %
1070 05-03-2020 00:00:00 9.15833 C 73.9861 %
1071 06-03-2020 00:00:00 9.48958 C 74.9514 %
1072 07-03-2020 00:00:00 9.38611 C 74.0556 %
1073 08-03-2020 00:00:00 9.99583 C 74.7292 %
1074 09-03-2020 00:00:00 10.54861 C 73.8819 %
1075 10-03-2020 00:00:00 10.28056 C 73.3819 %
Sensor: Nr:Datum:Temp:Feuchte:
G-T/H 1076 11-03-2020 00:00:00 11.72083 C 75.8889 %
1077 12-03-2020 00:00:00 12.29653 C 71.3333 %
1078 13-03-2020 00:00:00 11.08333 C 68.2014 %
1079 14-03-2020 00:00:00 10.32361 C 70.1250 %
1080 15-03-2020 00:00:00 10.87153 C 65.1667 %
1081 16-03-2020 00:00:00 10.71667 C 66.3819 %
1082 17-03-2020 00:00:00 11.47153 C 70.7292 %
1083 18-03-2020 00:00:00 11.42569 C 70.3472 %
1084 19-03-2020 00:00:00 12.36736 C 67.4583 %
1085 20-03-2020 00:00:00 12.53217 C 67.5944 %
1086 21-03-2020 00:00:00 11.55903 C 63.9097 %
1087 22-03-2020 00:00:00 9.66111 C 61.2292 %
1088 23-03-2020 00:00:00 8.67431 C 62.8819 %
1089 24-03-2020 00:00:00 8.04028 C 63.8611 %
1090 25-03-2020 00:00:00 7.80833 C 63.4722 %
1091 26-03-2020 00:00:00 8.04028 C 64.0208 %
1092 27-03-2020 00:00:00 9.19722 C 61.4583 %
1093 28-03-2020 00:00:00 10.48264 C 59.6944 %
1094 29-03-2020 00:00:00 10.14855 C 60.5362 %
1095 30-03-2020 00:00:00 8.62708 C 59.5417 %
1096 31-03-2020 00:00:00 8.58472 C 62.8194 %

Maximal/Minimal-Werte vom 01.04.2017 - 31.03.2020

Sensor Min Max Avg
Temp
(Aussen-T/F)
-12.4 °C
27-02-2018  07:25:17
46.2 °C
19-06-2017  18:30:17
11.17 °C
Feuchte
(Aussen-T/F)
20 %
01-04-2017  00:04:17
78 %
23-11-2017  06:30:17
32.52 %
Temp
(G-T/H)
2 °C
27-02-2018  07:01:17
29.7 °C
26-07-2018  16:25:17
13.64 °C
Feuchte
(G-T/H)
25 %
29-06-2019  18:04:17
85 %
16-10-2017  15:03:17
66.68 %

Die Daten stammen von einer Davis Vantage Pro 2 Wetter-Station und werden unter Linux mit der Software wview2wettercgi und aufbereitet. Alle Angaben erfolgen ohne Gewähr für ihre Vollständigkeit oder Richtigkeit.
Kontakt: Rainer Krienke krienke@uni-koblenz.de . Meine Webseiten an der Uni Koblenz oder privat.
Version: $Revision: 0.78 $